Time,TemperatureF,DewpointF,PressureIn,WindDirection,WindDirectionDegrees,WindSpeedMPH,WindSpeedGustMPH,Humidity,HourlyPrecipIn,Conditions,Clouds,dailyrainin,SoftwareType,DateUTC
2013-04-26 00:01:00,55.9,51.5,30.04,West,266,0.0,0.0,85,0.00,,,0.00,VWS V14.01,2013-04-26 07:01:00,
2013-04-26 00:02:00,55.9,51.5,30.04,West,266,0.0,0.0,85,0.00,,,0.00,VWS V14.01,2013-04-26 07:02:00,
2013-04-26 00:04:00,56.0,51.6,30.04,West,266,0.0,0.0,85,0.00,,,0.00,VWS V14.01,2013-04-26 07:04:00,
2013-04-26 00:05:00,56.0,51.6,30.04,West,265,0.0,0.0,85,0.00,,,0.00,VWS V14.01,2013-04-26 07:05:00,
2013-04-26 00:07:00,56.0,51.6,30.05,West,265,0.0,0.0,85,0.00,,,0.00,VWS V14.01,2013-04-26 07:07:00,
2013-04-26 00:10:00,55.9,51.5,30.05,West,265,0.0,0.0,85,0.00,,,0.00,VWS V14.01,2013-04-26 07:10:00,
2013-04-26 00:11:00,55.9,51.5,30.05,West,265,0.0,0.0,85,0.00,,,0.00,VWS V14.01,2013-04-26 07:11:00,
2013-04-26 00:12:00,55.9,51.5,30.05,West,265,0.0,0.0,85,0.00,,,0.00,VWS V14.01,2013-04-26 07:12:00,
2013-04-26 00:13:00,55.9,51.5,30.05,West,265,0.0,0.0,85,0.00,,,0.00,VWS V14.01,2013-04-26 07:13:00,
2013-04-26 00:14:00,55.8,51.4,30.05,West,266,0.0,0.0,85,0.00,,,0.00,VWS V14.01,2013-04-26 07:14:00,
2013-04-26 00:16:00,55.8,51.4,30.05,West,266,0.0,0.0,85,0.00,,,0.00,VWS V14.01,2013-04-26 07:16:00,
2013-04-26 00:18:00,55.7,51.3,30.05,West,266,0.0,0.0,85,0.00,,,0.00,VWS V14.01,2013-04-26 07:18:00,
2013-04-26 00:19:00,55.6,51.2,30.05,West,266,0.0,0.0,85,0.00,,,0.00,VWS V14.01,2013-04-26 07:19:00,
2013-04-26 00:22:00,55.3,50.6,30.05,West,265,0.0,0.0,84,0.00,,,0.00,VWS V14.01,2013-04-26 07:22:00,
2013-04-26 00:24:00,55.1,50.4,30.05,West,265,0.0,0.0,84,0.00,,,0.00,VWS V14.01,2013-04-26 07:24:00,
2013-04-26 00:25:00,55.1,50.7,30.05,West,265,0.0,0.0,85,0.00,,,0.00,VWS V14.01,2013-04-26 07:25:00,
2013-04-26 00:26:00,55.0,50.6,30.05,West,265,0.0,0.0,85,0.00,,,0.00,VWS V14.01,2013-04-26 07:26:00,
2013-04-26 00:28:00,55.0,50.6,30.05,West,266,0.0,0.0,85,0.00,,,0.00,VWS V14.01,2013-04-26 07:28:00,
2013-04-26 00:29:00,55.0,50.9,30.05,West,266,0.0,0.0,86,0.00,,,0.00,VWS V14.01,2013-04-26 07:29:00,
2013-04-26 00:31:00,55.0,50.9,30.05,West,266,0.0,0.0,86,0.00,,,0.00,VWS V14.01,2013-04-26 07:31:00,
2013-04-26 00:34:00,55.0,50.9,30.05,West,266,0.0,0.0,86,0.00,,,0.00,VWS V14.01,2013-04-26 07:34:00,
2013-04-26 00:35:00,55.0,50.9,30.05,West,266,0.0,0.0,86,0.00,,,0.00,VWS V14.01,2013-04-26 07:35:00,
2013-04-26 00:36:00,55.0,50.9,30.05,West,266,0.0,0.0,86,0.00,,,0.00,VWS V14.01,2013-04-26 07:36:00,
2013-04-26 00:37:00,55.0,51.2,30.05,West,266,0.0,0.0,87,0.00,,,0.00,VWS V14.01,2013-04-26 07:37:00,
2013-04-26 00:39:00,55.1,51.3,30.05,West,265,0.0,0.0,87,0.00,,,0.00,VWS V14.01,2013-04-26 07:39:00,
2013-04-26 00:42:00,55.0,50.9,30.05,West,265,0.0,0.0,86,0.00,,,0.00,VWS V14.01,2013-04-26 07:42:00,
2013-04-26 00:44:00,55.0,50.9,30.05,West,265,0.0,0.0,86,0.00,,,0.00,VWS V14.01,2013-04-26 07:44:00,
2013-04-26 00:47:00,55.0,51.2,30.05,West,266,0.0,0.0,87,0.00,,,0.00,VWS V14.01,2013-04-26 07:47:00,
2013-04-26 00:48:00,54.9,51.1,30.05,West,266,0.0,0.0,87,0.00,,,0.00,VWS V14.01,2013-04-26 07:48:00,
2013-04-26 00:50:00,55.0,51.2,30.05,West,266,0.0,0.0,87,0.00,,,0.00,VWS V14.01,2013-04-26 07:50:00,
2013-04-26 00:53:00,54.9,51.1,30.05,West,266,0.0,0.0,87,0.00,,,0.00,VWS V14.01,2013-04-26 07:53:00,
2013-04-26 00:54:00,54.9,51.1,30.05,West,266,0.0,0.0,87,0.00,,,0.00,VWS V14.01,2013-04-26 07:54:00,
2013-04-26 00:55:00,54.9,51.1,30.05,West,265,0.0,1.0,87,0.00,,,0.00,VWS V14.01,2013-04-26 07:55:00,
2013-04-26 00:59:00,54.9,51.1,30.05,West,265,0.0,0.0,87,0.00,,,0.00,VWS V14.01,2013-04-26 07:59:00,
2013-04-26 01:00:00,54.9,51.1,30.05,West,265,0.0,0.0,87,0.00,,,0.00,VWS V14.01,2013-04-26 08:00:00,
2013-04-26 01:01:00,54.9,51.1,30.05,West,266,0.0,0.0,87,0.00,,,0.00,VWS V14.01,2013-04-26 08:01:00,
2013-04-26 01:05:00,54.9,51.1,30.05,West,265,0.0,0.0,87,0.00,,,0.00,VWS V14.01,2013-04-26 08:05:00,
2013-04-26 01:06:00,54.9,51.1,30.05,West,265,0.0,0.0,87,0.00,,,0.00,VWS V14.01,2013-04-26 08:06:00,
2013-04-26 01:08:00,54.8,50.7,30.05,West,265,0.0,0.0,86,0.00,,,0.00,VWS V14.01,2013-04-26 08:08:00,
2013-04-26 01:11:00,54.7,50.6,30.06,West,266,0.0,0.0,86,0.00,,,0.00,VWS V14.01,2013-04-26 08:11:00,
2013-04-26 01:13:00,54.7,50.6,30.05,West,267,0.0,0.0,86,0.00,,,0.00,VWS V14.01,2013-04-26 08:13:00,
2013-04-26 01:14:00,54.7,50.6,30.05,West,267,0.0,0.0,86,0.00,,,0.00,VWS V14.01,2013-04-26 08:14:00,
2013-04-26 01:16:00,54.7,50.6,30.05,West,266,0.0,0.0,86,0.00,,,0.00,VWS V14.01,2013-04-26 08:16:00,
2013-04-26 01:19:00,54.7,50.6,30.05,West,267,0.0,0.0,86,0.00,,,0.00,VWS V14.01,2013-04-26 08:19:00,
2013-04-26 01:21:00,54.6,50.5,30.06,West,266,0.0,0.0,86,0.00,,,0.00,VWS V14.01,2013-04-26 08:21:00,
2013-04-26 01:23:00,54.5,50.4,30.06,West,267,0.0,0.0,86,0.00,,,0.00,VWS V14.01,2013-04-26 08:23:00,
2013-04-26 01:26:00,54.4,50.3,30.06,West,267,0.0,0.0,86,0.00,,,0.00,VWS V14.01,2013-04-26 08:26:00,
2013-04-26 01:28:00,54.3,50.5,30.05,West,267,0.0,0.0,87,0.00,,,0.00,VWS V14.01,2013-04-26 08:28:00,
2013-04-26 01:29:00,54.3,50.2,30.05,West,267,0.0,0.0,86,0.00,,,0.00,VWS V14.01,2013-04-26 08:29:00,
2013-04-26 01:32:00,54.2,50.4,30.05,West,267,0.0,0.0,87,0.00,,,0.00,VWS V14.01,2013-04-26 08:32:00,
2013-04-26 01:33:00,54.2,50.4,30.05,West,266,0.0,0.0,87,0.00,,,0.00,VWS V14.01,2013-04-26 08:33:00,
2013-04-26 01:34:00,54.2,50.4,30.05,West,266,0.0,0.0,87,0.00,,,0.00,VWS V14.01,2013-04-26 08:34:00,
2013-04-26 01:36:00,54.2,50.4,30.05,West,266,0.0,0.0,87,0.00,,,0.00,VWS V14.01,2013-04-26 08:36:00,
2013-04-26 01:38:00,54.2,50.4,30.05,West,267,0.0,0.0,87,0.00,,,0.00,VWS V14.01,2013-04-26 08:38:00,
2013-04-26 01:39:00,54.1,50.3,30.05,West,267,0.0,0.0,87,0.00,,,0.00,VWS V14.01,2013-04-26 08:39:00,
2013-04-26 01:41:00,54.1,50.3,30.05,West,267,0.0,0.0,87,0.00,,,0.00,VWS V14.01,2013-04-26 08:41:00,
2013-04-26 01:44:00,54.1,50.6,30.05,West,267,0.0,0.0,88,0.00,,,0.00,VWS V14.01,2013-04-26 08:44:00,
2013-04-26 01:46:00,54.1,50.6,30.05,West,267,0.0,0.0,88,0.00,,,0.00,VWS V14.01,2013-04-26 08:46:00,
2013-04-26 01:47:00,54.1,50.6,30.05,West,267,0.0,0.0,88,0.00,,,0.00,VWS V14.01,2013-04-26 08:47:00,
2013-04-26 01:49:00,54.1,50.6,30.05,West,266,0.0,0.0,88,0.00,,,0.00,VWS V14.01,2013-04-26 08:49:00,
2013-04-26 01:51:00,54.1,50.6,30.05,West,267,0.0,0.0,88,0.00,,,0.00,VWS V14.01,2013-04-26 08:51:00,
2013-04-26 01:53:00,54.0,50.5,30.05,West,267,0.0,0.0,88,0.00,,,0.00,VWS V14.01,2013-04-26 08:53:00,
2013-04-26 01:54:00,54.0,50.5,30.05,West,267,0.0,0.0,88,0.00,,,0.00,VWS V14.01,2013-04-26 08:54:00,
2013-04-26 01:55:00,54.0,50.5,30.05,West,267,0.0,0.0,88,0.00,,,0.00,VWS V14.01,2013-04-26 08:55:00,
2013-04-26 01:56:00,54.0,50.5,30.05,West,266,0.0,0.0,88,0.00,,,0.00,VWS V14.01,2013-04-26 08:56:00,
2013-04-26 01:59:00,54.0,50.5,30.05,West,266,0.0,0.0,88,0.00,,,0.00,VWS V14.01,2013-04-26 08:59:00,
2013-04-26 02:02:00,54.0,50.5,30.05,West,267,0.0,0.0,88,0.00,,,0.00,VWS V14.01,2013-04-26 09:02:00,
2013-04-26 02:03:00,54.0,50.5,30.05,West,267,0.0,0.0,88,0.00,,,0.00,VWS V14.01,2013-04-26 09:03:00,
2013-04-26 02:04:00,54.0,50.5,30.05,West,267,0.0,0.0,88,0.00,,,0.00,VWS V14.01,2013-04-26 09:04:00,
2013-04-26 02:06:00,54.0,50.5,30.05,West,266,0.0,0.0,88,0.00,,,0.00,VWS V14.01,2013-04-26 09:06:00,
2013-04-26 02:08:00,54.0,50.5,30.05,West,266,0.0,0.0,88,0.00,,,0.00,VWS V14.01,2013-04-26 09:08:00,
2013-04-26 02:09:00,53.9,50.4,30.05,West,267,0.0,0.0,88,0.00,,,0.00,VWS V14.01,2013-04-26 09:09:00,
2013-04-26 02:10:00,53.9,50.4,30.05,West,267,0.0,0.0,88,0.00,,,0.00,VWS V14.01,2013-04-26 09:10:00,
2013-04-26 02:14:00,53.9,50.4,30.05,West,267,0.0,0.0,88,0.00,,,0.00,VWS V14.01,2013-04-26 09:14:00,
2013-04-26 02:15:00,53.9,50.4,30.05,West,267,0.0,0.0,88,0.00,,,0.00,VWS V14.01,2013-04-26 09:15:00,
2013-04-26 02:16:00,53.9,50.4,30.05,West,266,0.0,0.0,88,0.00,,,0.00,VWS V14.01,2013-04-26 09:16:00,
2013-04-26 02:20:00,53.9,50.4,30.05,West,267,0.0,0.0,88,0.00,,,0.00,VWS V14.01,2013-04-26 09:20:00,
2013-04-26 02:21:00,53.9,50.4,30.05,West,267,0.0,0.0,88,0.00,,,0.00,VWS V14.01,2013-04-26 09:21:00,
2013-04-26 02:23:00,53.9,50.4,30.05,West,267,0.0,0.0,88,0.00,,,0.00,VWS V14.01,2013-04-26 09:23:00,
2013-04-26 02:25:00,53.9,50.4,30.05,West,266,0.0,0.0,88,0.00,,,0.00,VWS V14.01,2013-04-26 09:25:00,
2013-04-26 02:26:00,53.9,50.4,30.05,West,266,0.0,0.0,88,0.00,,,0.00,VWS V14.01,2013-04-26 09:26:00,
2013-04-26 02:29:00,53.8,50.3,30.05,West,267,0.0,0.0,88,0.00,,,0.00,VWS V14.01,2013-04-26 09:29:00,
2013-04-26 02:32:00,53.8,50.3,30.05,West,267,0.0,0.0,88,0.00,,,0.00,VWS V14.01,2013-04-26 09:32:00,
2013-04-26 02:33:00,53.7,50.2,30.05,West,267,0.0,0.0,88,0.00,,,0.00,VWS V14.01,2013-04-26 09:33:00,
2013-04-26 02:34:00,53.7,50.2,30.05,West,267,0.0,0.0,88,0.00,,,0.00,VWS V14.01,2013-04-26 09:34:00,
2013-04-26 02:37:00,53.6,50.1,30.05,West,267,0.0,0.0,88,0.00,,,0.00,VWS V14.01,2013-04-26 09:37:00,
2013-04-26 02:38:00,53.6,50.1,30.05,West,267,0.0,0.0,88,0.00,,,0.00,VWS V14.01,2013-04-26 09:38:00,
2013-04-26 02:39:00,53.5,50.0,30.05,West,267,0.0,0.0,88,0.00,,,0.00,VWS V14.01,2013-04-26 09:39:00,
2013-04-26 02:43:00,53.2,49.7,30.05,West,266,0.0,0.0,88,0.00,,,0.00,VWS V14.01,2013-04-26 09:43:00,
2013-04-26 02:44:00,53.2,49.7,30.05,West,266,0.0,0.0,88,0.00,,,0.00,VWS V14.01,2013-04-26 09:44:00,
2013-04-26 02:47:00,53.0,49.5,30.05,West,267,0.0,0.0,88,0.00,,,0.00,VWS V14.01,2013-04-26 09:47:00,
2013-04-26 02:48:00,52.9,49.5,30.05,West,266,0.0,0.0,88,0.00,,,0.00,VWS V14.01,2013-04-26 09:48:00,
2013-04-26 02:50:00,53.0,49.8,30.05,West,267,0.0,0.0,89,0.00,,,0.00,VWS V14.01,2013-04-26 09:50:00,
2013-04-26 02:51:00,53.0,49.8,30.05,West,267,0.0,0.0,89,0.00,,,0.00,VWS V14.01,2013-04-26 09:51:00,
2013-04-26 02:52:00,53.0,49.8,30.05,West,266,0.0,0.0,89,0.00,,,0.00,VWS V14.01,2013-04-26 09:52:00,
2013-04-26 02:53:00,53.0,49.8,30.05,West,266,0.0,0.0,89,0.00,,,0.00,VWS V14.01,2013-04-26 09:53:00,
2013-04-26 02:56:00,53.0,49.8,30.05,West,267,0.0,0.0,89,0.00,,,0.00,VWS V14.01,2013-04-26 09:56:00,
2013-04-26 02:57:00,53.0,49.8,30.05,West,267,0.0,0.0,89,0.00,,,0.00,VWS V14.01,2013-04-26 09:57:00,
2013-04-26 02:58:00,53.0,49.8,30.05,West,267,0.0,0.0,89,0.00,,,0.00,VWS V14.01,2013-04-26 09:58:00,
2013-04-26 03:00:00,52.9,49.8,30.05,West,267,0.0,0.0,89,0.00,,,0.00,VWS V14.01,2013-04-26 10:00:00,
2013-04-26 03:02:00,52.9,49.8,30.05,West,267,0.0,0.0,89,0.00,,,0.00,VWS V14.01,2013-04-26 10:02:00,
2013-04-26 03:03:00,52.9,49.8,30.05,West,266,0.0,0.0,89,0.00,,,0.00,VWS V14.01,2013-04-26 10:03:00,
2013-04-26 03:05:00,52.9,49.8,30.05,West,267,0.0,0.0,89,0.00,,,0.00,VWS V14.01,2013-04-26 10:05:00,
2013-04-26 03:07:00,52.8,49.7,30.05,West,267,0.0,0.0,89,0.00,,,0.00,VWS V14.01,2013-04-26 10:07:00,
2013-04-26 03:08:00,52.8,49.7,30.05,West,267,0.0,0.0,89,0.00,,,0.00,VWS V14.01,2013-04-26 10:08:00,
2013-04-26 03:10:00,52.8,49.7,30.05,West,266,0.0,0.0,89,0.00,,,0.00,VWS V14.01,2013-04-26 10:10:00,
2013-04-26 03:11:00,52.8,49.7,30.05,West,267,0.0,0.0,89,0.00,,,0.00,VWS V14.01,2013-04-26 10:11:00,
2013-04-26 03:12:00,52.8,50.0,30.05,West,267,0.0,0.0,90,0.00,,,0.00,VWS V14.01,2013-04-26 10:12:00,
2013-04-26 03:15:00,52.8,49.7,30.05,West,267,0.0,0.0,89,0.00,,,0.00,VWS V14.01,2013-04-26 10:15:00,
2013-04-26 03:16:00,52.8,49.7,30.05,West,267,0.0,0.0,89,0.00,,,0.00,VWS V14.01,2013-04-26 10:16:00,
2013-04-26 03:17:00,52.8,49.7,30.05,West,267,0.0,0.0,89,0.00,,,0.00,VWS V14.01,2013-04-26 10:17:00,
2013-04-26 03:19:00,52.7,49.8,30.05,West,266,0.0,0.0,90,0.00,,,0.00,VWS V14.01,2013-04-26 10:19:00,
2013-04-26 03:21:00,52.7,49.8,30.05,West,267,0.0,0.0,90,0.00,,,0.00,VWS V14.01,2013-04-26 10:21:00,
2013-04-26 03:22:00,52.7,49.8,30.05,West,267,0.0,0.0,90,0.00,,,0.00,VWS V14.01,2013-04-26 10:22:00,
2013-04-26 03:24:00,52.8,50.0,30.04,West,267,0.0,0.0,90,0.00,,,0.00,VWS V14.01,2013-04-26 10:24:00,
2013-04-26 03:25:00,52.8,50.0,30.05,West,267,0.0,0.0,90,0.00,,,0.00,VWS V14.01,2013-04-26 10:25:00,
2013-04-26 03:27:00,52.8,50.0,30.04,West,267,0.0,0.0,90,0.00,,,0.00,VWS V14.01,2013-04-26 10:27:00,
2013-04-26 03:29:00,52.8,49.7,30.04,West,267,0.0,0.0,89,0.00,,,0.00,VWS V14.01,2013-04-26 10:29:00,
2013-04-26 03:30:00,52.7,49.5,30.04,West,266,0.0,0.0,89,0.00,,,0.00,VWS V14.01,2013-04-26 10:30:00,
2013-04-26 03:32:00,52.5,49.4,30.05,West,267,0.0,0.0,89,0.00,,,0.00,VWS V14.01,2013-04-26 10:32:00,
2013-04-26 03:34:00,52.4,49.6,30.04,West,267,0.0,0.0,90,0.00,,,0.00,VWS V14.01,2013-04-26 10:34:00,
2013-04-26 03:35:00,52.4,49.6,30.04,West,267,0.0,0.0,90,0.00,,,0.00,VWS V14.01,2013-04-26 10:35:00,
2013-04-26 03:37:00,52.4,49.6,30.04,West,267,0.0,0.0,90,0.00,,,0.00,VWS V14.01,2013-04-26 10:37:00,
2013-04-26 03:39:00,52.5,49.7,30.05,West,266,0.0,0.0,90,0.00,,,0.00,VWS V14.01,2013-04-26 10:39:00,
2013-04-26 03:40:00,52.5,49.7,30.04,West,267,0.0,0.0,90,0.00,,,0.00,VWS V14.01,2013-04-26 10:40:00,
2013-04-26 03:42:00,52.5,49.7,30.04,West,267,0.0,0.0,90,0.00,,,0.00,VWS V14.01,2013-04-26 10:42:00,
2013-04-26 03:43:00,52.5,50.0,30.04,West,266,0.0,0.0,91,0.00,,,0.00,VWS V14.01,2013-04-26 10:43:00,
2013-04-26 03:45:00,52.6,50.0,30.04,West,266,0.0,0.0,91,0.00,,,0.00,VWS V14.01,2013-04-26 10:45:00,
2013-04-26 03:46:00,52.6,50.0,30.04,West,267,0.0,0.0,91,0.00,,,0.00,VWS V14.01,2013-04-26 10:46:00,
2013-04-26 03:48:00,52.7,50.2,30.04,West,266,0.0,0.0,91,0.00,,,0.00,VWS V14.01,2013-04-26 10:48:00,
2013-04-26 03:50:00,52.6,50.0,30.04,West,267,0.0,0.0,91,0.00,,,0.00,VWS V14.01,2013-04-26 10:50:00,
2013-04-26 03:51:00,52.6,49.8,30.04,West,267,0.0,0.0,90,0.00,,,0.00,VWS V14.01,2013-04-26 10:51:00,
2013-04-26 03:53:00,52.5,49.7,30.04,West,267,0.0,0.0,90,0.00,,,0.00,VWS V14.01,2013-04-26 10:53:00,
2013-04-26 03:55:00,52.5,49.7,30.04,West,267,0.0,0.0,90,0.00,,,0.00,VWS V14.01,2013-04-26 10:55:00,
2013-04-26 03:57:00,52.4,49.6,30.04,West,267,0.0,0.0,90,0.00,,,0.00,VWS V14.01,2013-04-26 10:57:00,
2013-04-26 03:58:00,52.4,49.6,30.04,West,267,0.0,0.0,90,0.00,,,0.00,VWS V14.01,2013-04-26 10:58:00,
2013-04-26 04:03:00,52.1,49.3,30.04,West,267,0.0,0.0,90,0.00,,,0.00,VWS V14.01,2013-04-26 11:03:00,
2013-04-26 04:04:00,52.1,49.3,30.04,West,266,0.0,0.0,90,0.00,,,0.00,VWS V14.01,2013-04-26 11:04:00,
2013-04-26 04:05:00,52.1,49.3,30.04,West,267,0.0,1.0,90,0.00,,,0.00,VWS V14.01,2013-04-26 11:05:00,
2013-04-26 04:09:00,52.1,49.3,30.04,West,267,0.0,0.0,90,0.00,,,0.00,VWS V14.01,2013-04-26 11:09:00,
2013-04-26 04:11:00,52.0,49.2,30.04,West,267,0.0,0.0,90,0.00,,,0.00,VWS V14.01,2013-04-26 11:11:00,
2013-04-26 04:12:00,52.0,49.2,30.05,West,266,0.0,0.0,90,0.00,,,0.00,VWS V14.01,2013-04-26 11:12:00,
2013-04-26 04:13:00,52.0,49.2,30.04,West,267,0.0,0.0,90,0.00,,,0.00,VWS V14.01,2013-04-26 11:13:00,
2013-04-26 04:14:00,52.0,49.2,30.04,West,267,0.0,0.0,90,0.00,,,0.00,VWS V14.01,2013-04-26 11:14:00,
2013-04-26 04:15:00,52.0,49.2,30.04,West,267,0.0,0.0,90,0.00,,,0.00,VWS V14.01,2013-04-26 11:15:00,
2013-04-26 04:18:00,52.0,49.5,30.04,West,267,0.0,0.0,91,0.00,,,0.00,VWS V14.01,2013-04-26 11:18:00,
2013-04-26 04:20:00,52.0,49.5,30.04,West,267,0.0,0.0,91,0.00,,,0.00,VWS V14.01,2013-04-26 11:20:00,
2013-04-26 04:22:00,52.0,49.5,30.04,West,267,0.0,0.0,91,0.00,,,0.00,VWS V14.01,2013-04-26 11:22:00,
2013-04-26 04:23:00,52.0,49.5,30.04,West,267,0.0,0.0,91,0.00,,,0.00,VWS V14.01,2013-04-26 11:23:00,
2013-04-26 04:25:00,52.0,49.5,30.04,West,266,0.0,0.0,91,0.00,,,0.00,VWS V14.01,2013-04-26 11:25:00,
2013-04-26 04:26:00,52.0,49.5,30.05,West,266,0.0,0.0,91,0.00,,,0.00,VWS V14.01,2013-04-26 11:26:00,
2013-04-26 04:27:00,52.0,49.5,30.04,West,266,0.0,0.0,91,0.00,,,0.00,VWS V14.01,2013-04-26 11:27:00,
2013-04-26 04:28:00,52.0,49.5,30.04,West,267,0.0,0.0,91,0.00,,,0.00,VWS V14.01,2013-04-26 11:28:00,
2013-04-26 04:29:00,51.9,49.4,30.04,West,267,0.0,0.0,91,0.00,,,0.00,VWS V14.01,2013-04-26 11:29:00,
2013-04-26 04:32:00,51.9,49.4,30.04,West,267,0.0,0.0,91,0.00,,,0.00,VWS V14.01,2013-04-26 11:32:00,
2013-04-26 04:34:00,51.8,49.3,30.04,West,267,0.0,0.0,91,0.00,,,0.00,VWS V14.01,2013-04-26 11:34:00,
2013-04-26 04:37:00,51.7,49.2,30.04,West,267,0.0,0.0,91,0.00,,,0.00,VWS V14.01,2013-04-26 11:37:00,
2013-04-26 04:38:00,51.7,49.2,30.04,West,267,0.0,0.0,91,0.00,,,0.00,VWS V14.01,2013-04-26 11:38:00,
2013-04-26 04:40:00,51.7,49.2,30.04,West,267,0.0,0.0,91,0.00,,,0.00,VWS V14.01,2013-04-26 11:40:00,
2013-04-26 04:41:00,51.7,49.2,30.04,West,267,0.0,0.0,91,0.00,,,0.00,VWS V14.01,2013-04-26 11:41:00,
2013-04-26 04:42:00,51.7,49.2,30.04,West,267,0.0,0.0,91,0.00,,,0.00,VWS V14.01,2013-04-26 11:42:00,
2013-04-26 04:43:00,51.7,49.2,30.04,West,266,0.0,0.0,91,0.00,,,0.00,VWS V14.01,2013-04-26 11:43:00,
2013-04-26 04:46:00,51.8,49.3,30.04,West,266,0.0,0.0,91,0.00,,,0.00,VWS V14.01,2013-04-26 11:46:00,
2013-04-26 04:47:00,51.8,49.3,30.04,West,267,0.0,0.0,91,0.00,,,0.00,VWS V14.01,2013-04-26 11:47:00,
2013-04-26 04:48:00,51.8,49.3,30.04,West,267,0.0,0.0,91,0.00,,,0.00,VWS V14.01,2013-04-26 11:48:00,
2013-04-26 04:50:00,51.7,49.2,30.04,West,267,0.0,0.0,91,0.00,,,0.00,VWS V14.01,2013-04-26 11:50:00,
2013-04-26 04:51:00,51.7,49.2,30.04,West,266,0.0,0.0,91,0.00,,,0.00,VWS V14.01,2013-04-26 11:51:00,
2013-04-26 04:54:00,51.6,49.1,30.04,West,267,0.0,0.0,91,0.00,,,0.00,VWS V14.01,2013-04-26 11:54:00,
2013-04-26 04:56:00,51.6,49.1,30.04,West,267,0.0,0.0,91,0.00,,,0.00,VWS V14.01,2013-04-26 11:56:00,
2013-04-26 04:59:00,51.5,49.0,30.04,West,267,0.0,0.0,91,0.00,,,0.00,VWS V14.01,2013-04-26 11:59:00,
2013-04-26 05:00:00,51.5,49.0,30.04,West,267,0.0,0.0,91,0.00,,,0.00,VWS V14.01,2013-04-26 12:00:00,
2013-04-26 05:01:00,51.5,49.0,30.04,West,267,0.0,0.0,91,0.00,,,0.00,VWS V14.01,2013-04-26 12:01:00,
2013-04-26 05:02:00,51.4,48.9,30.04,West,266,0.0,0.0,91,0.00,,,0.00,VWS V14.01,2013-04-26 12:02:00,
2013-04-26 05:05:00,51.4,48.9,30.04,West,267,0.0,0.0,91,0.00,,,0.00,VWS V14.01,2013-04-26 12:05:00,
2013-04-26 05:06:00,51.4,48.9,30.04,West,267,0.0,0.0,91,0.00,,,0.00,VWS V14.01,2013-04-26 12:06:00,
2013-04-26 05:07:00,51.4,48.9,30.04,West,267,0.0,0.0,91,0.00,,,0.00,VWS V14.01,2013-04-26 12:07:00,
2013-04-26 05:09:00,51.4,48.9,30.04,West,267,0.0,0.0,91,0.00,,,0.00,VWS V14.01,2013-04-26 12:09:00,
2013-04-26 05:11:00,51.4,48.9,30.04,West,267,0.0,0.0,91,0.00,,,0.00,VWS V14.01,2013-04-26 12:11:00,
2013-04-26 05:12:00,51.4,48.9,30.04,West,267,0.0,0.0,91,0.00,,,0.00,VWS V14.01,2013-04-26 12:12:00,
2013-04-26 05:14:00,51.3,48.8,30.04,West,267,0.0,0.0,91,0.00,,,0.00,VWS V14.01,2013-04-26 12:14:00,
2013-04-26 05:17:00,51.3,48.8,30.04,West,267,0.0,0.0,91,0.00,,,0.00,VWS V14.01,2013-04-26 12:17:00,
2013-04-26 05:18:00,51.3,48.8,30.04,West,267,0.0,0.0,91,0.00,,,0.00,VWS V14.01,2013-04-26 12:18:00,
2013-04-26 05:19:00,51.3,48.8,30.04,West,266,0.0,0.0,91,0.00,,,0.00,VWS V14.01,2013-04-26 12:19:00,
2013-04-26 05:22:00,51.3,48.8,30.04,West,266,0.0,0.0,91,0.00,,,0.00,VWS V14.01,2013-04-26 12:22:00,
2013-04-26 05:23:00,51.3,48.8,30.04,West,266,0.0,0.0,91,0.00,,,0.00,VWS V14.01,2013-04-26 12:23:00,
2013-04-26 05:24:00,51.4,48.9,30.04,West,267,0.0,0.0,91,0.00,,,0.00,VWS V14.01,2013-04-26 12:24:00,
2013-04-26 05:27:00,51.4,48.9,30.04,West,267,0.0,0.0,91,0.00,,,0.00,VWS V14.01,2013-04-26 12:27:00,
2013-04-26 05:28:00,51.4,48.9,30.04,West,266,0.0,0.0,91,0.00,,,0.00,VWS V14.01,2013-04-26 12:28:00,
2013-04-26 05:29:00,51.3,48.8,30.04,West,266,0.0,0.0,91,0.00,,,0.00,VWS V14.01,2013-04-26 12:29:00,
2013-04-26 05:33:00,51.3,48.8,30.04,West,267,0.0,0.0,91,0.00,,,0.00,VWS V14.01,2013-04-26 12:33:00,
2013-04-26 05:34:00,51.3,48.8,30.04,West,267,0.0,0.0,91,0.00,,,0.00,VWS V14.01,2013-04-26 12:34:00,
2013-04-26 05:36:00,51.2,48.7,30.04,West,266,0.0,0.0,91,0.00,,,0.00,VWS V14.01,2013-04-26 12:36:00,
2013-04-26 05:38:00,51.2,48.7,30.04,West,267,0.0,0.0,91,0.00,,,0.00,VWS V14.01,2013-04-26 12:38:00,
2013-04-26 05:40:00,51.2,48.7,30.04,West,267,0.0,0.0,91,0.00,,,0.00,VWS V14.01,2013-04-26 12:40:00,
2013-04-26 05:43:00,51.1,48.6,30.04,West,267,0.0,0.0,91,0.00,,,0.00,VWS V14.01,2013-04-26 12:43:00,
2013-04-26 05:44:00,51.1,48.6,30.04,West,267,0.0,0.0,91,0.00,,,0.00,VWS V14.01,2013-04-26 12:44:00,
2013-04-26 05:45:00,51.2,48.7,30.04,West,267,0.0,0.0,91,0.00,,,0.00,VWS V14.01,2013-04-26 12:45:00,
2013-04-26 05:46:00,51.2,48.7,30.04,West,266,0.0,0.0,91,0.00,,,0.00,VWS V14.01,2013-04-26 12:46:00,
2013-04-26 05:48:00,51.1,48.6,30.04,West,267,0.0,0.0,91,0.00,,,0.00,VWS V14.01,2013-04-26 12:48:00,
2013-04-26 05:50:00,51.1,48.6,30.04,West,267,0.0,0.0,91,0.00,,,0.00,VWS V14.01,2013-04-26 12:50:00,
2013-04-26 05:52:00,51.1,48.6,30.04,West,267,0.0,0.0,91,0.00,,,0.00,VWS V14.01,2013-04-26 12:52:00,
2013-04-26 05:53:00,51.1,48.6,30.04,West,267,0.0,0.0,91,0.00,,,0.00,VWS V14.01,2013-04-26 12:53:00,
2013-04-26 05:56:00,51.1,48.6,30.04,West,267,0.0,0.0,91,0.00,,,0.00,VWS V14.01,2013-04-26 12:56:00,
2013-04-26 05:57:00,51.1,48.6,30.04,West,267,0.0,0.0,91,0.00,,,0.00,VWS V14.01,2013-04-26 12:57:00,
2013-04-26 05:58:00,51.1,48.9,30.04,West,267,0.0,0.0,92,0.00,,,0.00,VWS V14.01,2013-04-26 12:58:00,
2013-04-26 06:01:00,51.0,48.5,30.04,West,267,0.0,0.0,91,0.00,,,0.00,VWS V14.01,2013-04-26 13:01:00,
2013-04-26 06:03:00,51.0,48.5,30.04,West,266,0.0,0.0,91,0.00,,,0.00,VWS V14.01,2013-04-26 13:03:00,
2013-04-26 06:05:00,50.9,48.4,30.04,West,267,0.0,0.0,91,0.00,,,0.00,VWS V14.01,2013-04-26 13:05:00,
2013-04-26 06:06:00,50.9,48.4,30.04,West,267,0.0,0.0,91,0.00,,,0.00,VWS V14.01,2013-04-26 13:06:00,
2013-04-26 06:07:00,50.8,48.3,30.04,West,267,0.0,0.0,91,0.00,,,0.00,VWS V14.01,2013-04-26 13:07:00,
2013-04-26 06:09:00,50.8,48.6,30.05,West,267,0.0,0.0,92,0.00,,,0.00,VWS V14.01,2013-04-26 13:09:00,
2013-04-26 06:10:00,50.8,48.6,30.05,West,267,0.0,0.0,92,0.00,,,0.00,VWS V14.01,2013-04-26 13:10:00,
2013-04-26 06:14:00,50.8,48.6,30.05,West,267,0.0,0.0,92,0.00,,,0.00,VWS V14.01,2013-04-26 13:14:00,
2013-04-26 06:15:00,50.9,48.7,30.05,West,266,0.0,0.0,92,0.00,,,0.00,VWS V14.01,2013-04-26 13:15:00,
2013-04-26 06:16:00,50.8,48.6,30.05,West,267,0.0,0.0,92,0.00,,,0.00,VWS V14.01,2013-04-26 13:16:00,
2013-04-26 06:17:00,50.8,48.6,30.05,West,267,0.0,0.0,92,0.00,,,0.00,VWS V14.01,2013-04-26 13:17:00,
2013-04-26 06:19:00,50.8,48.6,30.05,West,267,0.0,1.0,92,0.00,,,0.00,VWS V14.01,2013-04-26 13:19:00,
2013-04-26 06:22:00,50.8,48.6,30.05,West,267,0.0,0.0,92,0.00,,,0.00,VWS V14.01,2013-04-26 13:22:00,
2013-04-26 06:23:00,50.9,48.7,30.05,West,267,0.0,0.0,92,0.00,,,0.00,VWS V14.01,2013-04-26 13:23:00,
2013-04-26 06:24:00,50.9,48.7,30.05,West,267,0.0,0.0,92,0.00,,,0.00,VWS V14.01,2013-04-26 13:24:00,
2013-04-26 06:25:00,50.9,48.7,30.05,West,267,0.0,0.0,92,0.00,,,0.00,VWS V14.01,2013-04-26 13:25:00,
2013-04-26 06:28:00,51.1,48.9,30.05,West,267,0.0,0.0,92,0.00,,,0.00,VWS V14.01,2013-04-26 13:28:00,
2013-04-26 06:29:00,51.1,48.9,30.05,West,267,0.0,0.0,92,0.00,,,0.00,VWS V14.01,2013-04-26 13:29:00,
2013-04-26 06:30:00,51.2,49.0,30.05,West,266,0.0,0.0,92,0.00,,,0.00,VWS V14.01,2013-04-26 13:30:00,
2013-04-26 06:34:00,51.3,49.1,30.05,West,267,0.0,0.0,92,0.00,,,0.00,VWS V14.01,2013-04-26 13:34:00,
2013-04-26 06:36:00,51.3,49.1,30.05,West,267,0.0,0.0,92,0.00,,,0.00,VWS V14.01,2013-04-26 13:36:00,
2013-04-26 06:37:00,51.3,49.1,30.06,West,266,0.0,0.0,92,0.00,,,0.00,VWS V14.01,2013-04-26 13:37:00,
2013-04-26 06:39:00,51.3,49.1,30.06,West,267,0.0,0.0,92,0.00,,,0.00,VWS V14.01,2013-04-26 13:39:00,
2013-04-26 06:40:00,51.3,49.1,30.05,West,267,0.0,0.0,92,0.00,,,0.00,VWS V14.01,2013-04-26 13:40:00,
2013-04-26 06:41:00,51.4,49.2,30.06,West,267,0.0,0.0,92,0.00,,,0.00,VWS V14.01,2013-04-26 13:41:00,
2013-04-26 06:43:00,51.4,49.2,30.06,West,267,0.0,0.0,92,0.00,,,0.00,VWS V14.01,2013-04-26 13:43:00,
2013-04-26 06:44:00,51.4,49.2,30.06,West,267,0.0,0.0,92,0.00,,,0.00,VWS V14.01,2013-04-26 13:44:00,
2013-04-26 06:45:00,51.5,49.3,30.06,West,267,0.0,0.0,92,0.00,,,0.00,VWS V14.01,2013-04-26 13:45:00,
2013-04-26 06:46:00,51.6,49.4,30.06,West,267,0.0,0.0,92,0.00,,,0.00,VWS V14.01,2013-04-26 13:46:00,
2013-04-26 06:49:00,52.1,49.8,30.06,West,267,0.0,0.0,92,0.00,,,0.00,VWS V14.01,2013-04-26 13:49:00,
2013-04-26 06:50:00,52.2,50.0,30.06,West,266,0.0,0.0,92,0.00,,,0.00,VWS V14.01,2013-04-26 13:50:00,
2013-04-26 06:52:00,52.5,50.2,30.06,West,267,0.0,0.0,92,0.00,,,0.00,VWS V14.01,2013-04-26 13:52:00,
2013-04-26 06:54:00,52.8,50.5,30.06,West,267,0.0,0.0,92,0.00,,,0.00,VWS V14.01,2013-04-26 13:54:00,
2013-04-26 06:55:00,52.9,50.6,30.06,West,267,0.0,0.0,92,0.00,,,0.00,VWS V14.01,2013-04-26 13:55:00,
2013-04-26 07:00:00,54.1,51.5,30.06,West,267,0.0,0.0,91,0.00,,,0.00,VWS V14.01,2013-04-26 14:00:00,
2013-04-26 07:01:00,54.1,51.5,30.06,West,267,0.0,0.0,91,0.00,,,0.00,VWS V14.01,2013-04-26 14:01:00,
2013-04-26 07:02:00,54.4,51.5,30.06,West,267,0.0,0.0,90,0.00,,,0.00,VWS V14.01,2013-04-26 14:02:00,
2013-04-26 07:03:00,54.5,51.6,30.06,West,267,0.0,0.0,90,0.00,,,0.00,VWS V14.01,2013-04-26 14:03:00,
2013-04-26 07:05:00,54.8,51.9,30.06,West,267,0.0,0.0,90,0.00,,,0.00,VWS V14.01,2013-04-26 14:05:00,
2013-04-26 07:07:00,55.2,52.0,30.06,West,267,0.0,0.0,89,0.00,,,0.00,VWS V14.01,2013-04-26 14:07:00,
2013-04-26 07:08:00,55.3,52.1,30.06,West,267,0.0,0.0,89,0.00,,,0.00,VWS V14.01,2013-04-26 14:08:00,
2013-04-26 07:09:00,55.5,52.0,30.07,West,267,0.0,1.0,88,0.00,,,0.00,VWS V14.01,2013-04-26 14:09:00,
2013-04-26 07:11:00,55.8,52.3,30.07,West,267,0.0,0.0,88,0.00,,,0.00,VWS V14.01,2013-04-26 14:11:00,
2013-04-26 07:14:00,56.1,52.0,30.07,West,267,0.0,0.0,86,0.00,,,0.00,VWS V14.01,2013-04-26 14:14:00,
2013-04-26 07:15:00,56.2,52.1,30.07,West,267,0.0,0.0,86,0.00,,,0.00,VWS V14.01,2013-04-26 14:15:00,
2013-04-26 07:16:00,56.3,52.2,30.07,West,267,0.0,0.0,86,0.00,,,0.00,VWS V14.01,2013-04-26 14:16:00,
2013-04-26 07:17:00,56.5,52.4,30.07,West,267,0.0,0.0,86,0.00,,,0.00,VWS V14.01,2013-04-26 14:17:00,
2013-04-26 07:19:00,56.6,52.2,30.07,West,266,0.0,0.0,85,0.00,,,0.00,VWS V14.01,2013-04-26 14:19:00,
2013-04-26 07:20:00,56.7,52.2,30.07,NNW,344,1.0,1.0,85,0.00,,,0.00,VWS V14.01,2013-04-26 14:20:00,
2013-04-26 07:22:00,56.8,52.0,30.07,NNW,344,0.0,1.0,84,0.00,,,0.00,VWS V14.01,2013-04-26 14:22:00,
2013-04-26 07:23:00,56.8,52.0,30.07,NNW,344,0.0,0.0,84,0.00,,,0.00,VWS V14.01,2013-04-26 14:23:00,
2013-04-26 07:24:00,57.0,52.2,30.07,NNW,344,0.0,0.0,84,0.00,,,0.00,VWS V14.01,2013-04-26 14:24:00,
2013-04-26 07:25:00,57.1,52.3,30.07,NNW,344,0.0,0.0,84,0.00,,,0.00,VWS V14.01,2013-04-26 14:25:00,
2013-04-26 07:28:00,57.9,53.1,30.07,NNW,344,0.0,1.0,84,0.00,,,0.00,VWS V14.01,2013-04-26 14:28:00,
2013-04-26 07:29:00,58.1,53.0,30.07,NNW,344,0.0,0.0,83,0.00,,,0.00,VWS V14.01,2013-04-26 14:29:00,
2013-04-26 07:31:00,58.4,52.6,30.07,NNW,345,0.0,0.0,81,0.00,,,0.00,VWS V14.01,2013-04-26 14:31:00,
2013-04-26 07:32:00,58.6,52.8,30.07,NNW,344,0.0,0.0,81,0.00,,,0.00,VWS V14.01,2013-04-26 14:32:00,
2013-04-26 07:33:00,58.7,52.9,30.07,NNW,344,0.0,0.0,81,0.00,,,0.00,VWS V14.01,2013-04-26 14:33:00,
2013-04-26 07:35:00,59.1,53.3,30.07,NNW,344,0.0,0.0,81,0.00,,,0.00,VWS V14.01,2013-04-26 14:35:00,
2013-04-26 07:36:00,59.2,53.0,30.07,NNW,344,0.0,0.0,80,0.00,,,0.00,VWS V14.01,2013-04-26 14:36:00,
2013-04-26 07:39:00,59.5,53.0,30.07,NNW,344,0.0,0.0,79,0.00,,,0.00,VWS V14.01,2013-04-26 14:39:00,
2013-04-26 07:40:00,59.7,53.2,30.07,NNW,344,0.0,0.0,79,0.00,,,0.00,VWS V14.01,2013-04-26 14:40:00,
2013-04-26 07:42:00,59.7,52.8,30.07,NNW,343,0.0,0.0,78,0.00,,,0.00,VWS V14.01,2013-04-26 14:42:00,
2013-04-26 07:43:00,59.8,52.9,30.07,NNW,343,0.0,0.0,78,0.00,,,0.00,VWS V14.01,2013-04-26 14:43:00,
2013-04-26 07:44:00,60.0,53.1,30.07,NNW,343,0.0,0.0,78,0.00,,,0.00,VWS V14.01,2013-04-26 14:44:00,
2013-04-26 07:45:00,60.2,53.3,30.07,NNW,343,0.0,0.0,78,0.00,,,0.00,VWS V14.01,2013-04-26 14:45:00,
2013-04-26 07:46:00,60.3,53.4,30.07,NNW,343,0.0,0.0,78,0.00,,,0.00,VWS V14.01,2013-04-26 14:46:00,
2013-04-26 07:48:00,60.1,52.5,30.07,WSW,257,0.0,0.0,76,0.00,,,0.00,VWS V14.01,2013-04-26 14:48:00,
2013-04-26 07:50:00,59.9,52.7,30.07,WSW,253,0.0,0.0,77,0.00,,,0.00,VWS V14.01,2013-04-26 14:50:00,
2013-04-26 07:51:00,59.8,52.6,30.07,WSW,255,0.0,0.0,77,0.00,,,0.00,VWS V14.01,2013-04-26 14:51:00,
2013-04-26 07:55:00,59.7,52.8,30.07,West,264,0.0,0.0,78,0.00,,,0.00,VWS V14.01,2013-04-26 14:55:00,
2013-04-26 07:56:00,59.7,52.8,30.07,West,260,0.0,0.0,78,0.00,,,0.00,VWS V14.01,2013-04-26 14:56:00,
2013-04-26 07:57:00,59.6,52.7,30.07,West,260,1.0,1.0,78,0.00,,,0.00,VWS V14.01,2013-04-26 14:57:00,
2013-04-26 07:59:00,59.6,52.7,30.07,West,260,0.0,0.0,78,0.00,,,0.00,VWS V14.01,2013-04-26 14:59:00,
2013-04-26 08:01:00,59.6,52.4,30.07,WSW,248,0.0,2.0,77,0.00,,,0.00,VWS V14.01,2013-04-26 15:01:00,
2013-04-26 08:02:00,59.5,52.6,30.07,WSW,242,0.0,1.0,78,0.00,,,0.00,VWS V14.01,2013-04-26 15:02:00,
2013-04-26 08:03:00,59.5,52.6,30.07,WSW,242,0.0,0.0,78,0.00,,,0.00,VWS V14.01,2013-04-26 15:03:00,
2013-04-26 08:06:00,59.7,52.8,30.07,WSW,257,1.0,2.0,78,0.00,,,0.00,VWS V14.01,2013-04-26 15:06:00,
2013-04-26 08:07:00,59.7,52.5,30.07,WSW,251,0.0,2.0,77,0.00,,,0.00,VWS V14.01,2013-04-26 15:07:00,
2013-04-26 08:08:00,59.7,52.5,30.07,WSW,251,0.0,0.0,77,0.00,,,0.00,VWS V14.01,2013-04-26 15:08:00,
2013-04-26 08:10:00,59.7,52.5,30.07,West,259,2.0,2.0,77,0.00,,,0.00,VWS V14.01,2013-04-26 15:10:00,
2013-04-26 08:13:00,59.7,52.5,30.07,WSW,250,0.0,1.0,77,0.00,,,0.00,VWS V14.01,2013-04-26 15:13:00,
2013-04-26 08:14:00,59.8,52.9,30.08,WSW,250,0.0,1.0,78,0.00,,,0.00,VWS V14.01,2013-04-26 15:14:00,
2013-04-26 08:15:00,59.9,53.0,30.07,WNW,287,3.0,3.0,78,0.00,,,0.00,VWS V14.01,2013-04-26 15:15:00,
2013-04-26 08:16:00,59.9,52.7,30.07,WSW,249,2.0,3.0,77,0.00,,,0.00,VWS V14.01,2013-04-26 15:16:00,
2013-04-26 08:20:00,60.0,52.8,30.07,WSW,238,1.0,1.0,77,0.00,,,0.00,VWS V14.01,2013-04-26 15:20:00,
2013-04-26 08:23:00,60.2,53.0,30.07,WSW,256,1.0,2.0,77,0.00,,,0.00,VWS V14.01,2013-04-26 15:23:00,
2013-04-26 08:25:00,60.4,53.2,30.07,WSW,250,3.0,3.0,77,0.00,,,0.00,VWS V14.01,2013-04-26 15:25:00,
2013-04-26 08:26:00,60.5,53.3,30.07,WSW,256,1.0,3.0,77,0.00,,,0.00,VWS V14.01,2013-04-26 15:26:00,
2013-04-26 08:27:00,60.6,53.4,30.07,NNW,340,2.0,2.0,77,0.00,,,0.00,VWS V14.01,2013-04-26 15:27:00,
2013-04-26 08:28:00,60.7,53.1,30.07,NW,325,0.0,2.0,76,0.00,,,0.00,VWS V14.01,2013-04-26 15:28:00,
2013-04-26 08:31:00,60.9,52.9,30.07,WSW,240,2.0,3.0,75,0.00,,,0.00,VWS V14.01,2013-04-26 15:31:00,
2013-04-26 08:34:00,60.9,52.9,30.07,WNW,283,2.0,3.0,75,0.00,,,0.00,VWS V14.01,2013-04-26 15:34:00,
2013-04-26 08:35:00,60.9,52.9,30.07,West,268,2.0,4.0,75,0.00,,,0.00,VWS V14.01,2013-04-26 15:35:00,
2013-04-26 08:39:00,61.1,53.1,30.07,West,267,1.0,2.0,75,0.00,,,0.00,VWS V14.01,2013-04-26 15:39:00,
2013-04-26 08:40:00,61.2,53.2,30.07,West,266,1.0,1.0,75,0.00,,,0.00,VWS V14.01,2013-04-26 15:40:00,
2013-04-26 08:41:00,61.3,53.3,30.07,WSW,256,3.0,3.0,75,0.00,,,0.00,VWS V14.01,2013-04-26 15:41:00,
2013-04-26 08:44:00,61.4,53.0,30.07,WSW,258,1.0,2.0,74,0.00,,,0.00,VWS V14.01,2013-04-26 15:44:00,
2013-04-26 08:45:00,61.6,53.2,30.07,West,263,0.0,2.0,74,0.00,,,0.00,VWS V14.01,2013-04-26 15:45:00,
2013-04-26 08:46:00,61.7,53.7,30.07,NW,319,1.0,1.0,75,0.00,,,0.00,VWS V14.01,2013-04-26 15:46:00,
2013-04-26 08:47:00,61.9,53.5,30.08,West,263,1.0,1.0,74,0.00,,,0.00,VWS V14.01,2013-04-26 15:47:00,
2013-04-26 08:49:00,62.2,53.8,30.08,NNW,338,2.0,2.0,74,0.00,,,0.00,VWS V14.01,2013-04-26 15:49:00,
2013-04-26 08:51:00,62.4,53.6,30.08,WNW,296,0.0,1.0,73,0.00,,,0.00,VWS V14.01,2013-04-26 15:51:00,
2013-04-26 08:53:00,62.7,53.5,30.08,SW,232,1.0,2.0,72,0.00,,,0.00,VWS V14.01,2013-04-26 15:53:00,
2013-04-26 08:54:00,62.9,54.1,30.08,SW,233,2.0,2.0,73,0.00,,,0.00,VWS V14.01,2013-04-26 15:54:00,
2013-04-26 08:55:00,63.0,53.8,30.08,West,276,2.0,3.0,72,0.00,,,0.00,VWS V14.01,2013-04-26 15:55:00,
2013-04-26 08:56:00,63.2,53.7,30.07,WSW,258,2.0,3.0,71,0.00,,,0.00,VWS V14.01,2013-04-26 15:56:00,
2013-04-26 08:57:00,63.2,53.7,30.07,WSW,248,2.0,4.0,71,0.00,,,0.00,VWS V14.01,2013-04-26 15:57:00,
2013-04-26 09:00:00,63.4,53.5,30.08,NNW,345,1.0,3.0,70,0.00,,,0.00,VWS V14.01,2013-04-26 16:00:00,
2013-04-26 09:02:00,63.5,53.9,30.07,West,270,2.0,3.0,71,0.00,,,0.00,VWS V14.01,2013-04-26 16:02:00,
2013-04-26 09:03:00,63.7,54.1,30.08,West,263,1.0,2.0,71,0.00,,,0.00,VWS V14.01,2013-04-26 16:03:00,
2013-04-26 09:04:00,63.8,53.8,30.08,SW,236,1.0,2.0,70,0.00,,,0.00,VWS V14.01,2013-04-26 16:04:00,
2013-04-26 09:06:00,63.9,53.5,30.08,SW,233,0.0,1.0,69,0.00,,,0.00,VWS V14.01,2013-04-26 16:06:00,
2013-04-26 09:07:00,64.1,54.1,30.08,WSW,250,2.0,2.0,70,0.00,,,0.00,VWS V14.01,2013-04-26 16:07:00,
2013-04-26 09:08:00,64.2,53.8,30.08,WSW,255,2.0,4.0,69,0.00,,,0.00,VWS V14.01,2013-04-26 16:08:00,
2013-04-26 09:10:00,64.4,54.0,30.08,WSW,252,0.0,1.0,69,0.00,,,0.00,VWS V14.01,2013-04-26 16:10:00,
2013-04-26 09:13:00,64.9,54.1,30.08,West,264,2.0,3.0,68,0.00,,,0.00,VWS V14.01,2013-04-26 16:13:00,
2013-04-26 09:15:00,64.9,53.7,30.08,WSW,243,3.0,4.0,67,0.00,,,0.00,VWS V14.01,2013-04-26 16:15:00,
2013-04-26 09:16:00,64.8,53.6,30.08,WSW,243,1.0,1.0,67,0.00,,,0.00,VWS V14.01,2013-04-26 16:16:00,
2013-04-26 09:18:00,64.8,53.6,30.07,WSW,245,3.0,4.0,67,0.00,,,0.00,VWS V14.01,2013-04-26 16:18:00,
2013-04-26 09:19:00,64.8,53.6,30.07,WSW,241,3.0,4.0,67,0.00,,,0.00,VWS V14.01,2013-04-26 16:19:00,
2013-04-26 09:20:00,64.7,53.5,30.07,WSW,258,2.0,4.0,67,0.00,,,0.00,VWS V14.01,2013-04-26 16:20:00,
2013-04-26 09:21:00,64.7,53.9,30.07,WNW,291,3.0,3.0,68,0.00,,,0.00,VWS V14.01,2013-04-26 16:21:00,
2013-04-26 09:24:00,64.8,53.6,30.08,West,281,1.0,4.0,67,0.00,,,0.00,VWS V14.01,2013-04-26 16:24:00,
2013-04-26 09:25:00,64.7,53.5,30.08,WSW,240,2.0,3.0,67,0.00,,,0.00,VWS V14.01,2013-04-26 16:25:00,
2013-04-26 09:26:00,64.8,53.6,30.08,WSW,250,1.0,3.0,67,0.00,,,0.00,VWS V14.01,2013-04-26 16:26:00,
2013-04-26 09:29:00,65.3,54.1,30.08,NNW,347,0.0,1.0,67,0.00,,,0.00,VWS V14.01,2013-04-26 16:29:00,
2013-04-26 09:30:00,65.5,54.3,30.08,SW,233,2.0,2.0,67,0.00,,,0.00,VWS V14.01,2013-04-26 16:30:00,
2013-04-26 09:32:00,66.0,54.3,30.08,North,354,1.0,1.0,66,0.00,,,0.00,VWS V14.01,2013-04-26 16:32:00,
2013-04-26 09:33:00,66.3,54.6,30.08,WNW,300,2.0,3.0,66,0.00,,,0.00,VWS V14.01,2013-04-26 16:33:00,
2013-04-26 09:35:00,66.6,54.5,30.08,NW,326,3.0,3.0,65,0.00,,,0.00,VWS V14.01,2013-04-26 16:35:00,
2013-04-26 09:37:00,66.7,53.7,30.08,West,270,1.0,2.0,63,0.00,,,0.00,VWS V14.01,2013-04-26 16:37:00,
2013-04-26 09:38:00,66.8,53.8,30.08,WSW,254,1.0,2.0,63,0.00,,,0.00,VWS V14.01,2013-04-26 16:38:00,
2013-04-26 09:40:00,66.8,53.4,30.08,WSW,242,1.0,2.0,62,0.00,,,0.00,VWS V14.01,2013-04-26 16:40:00,
2013-04-26 09:42:00,66.9,53.9,30.08,West,259,3.0,3.0,63,0.00,,,0.00,VWS V14.01,2013-04-26 16:42:00,
2013-04-26 09:44:00,67.2,53.8,30.08,WNW,293,1.0,1.0,62,0.00,,,0.00,VWS V14.01,2013-04-26 16:44:00,
2013-04-26 09:47:00,67.3,53.8,30.08,West,270,0.0,2.0,62,0.00,,,0.00,VWS V14.01,2013-04-26 16:47:00,
2013-04-26 09:48:00,67.3,53.8,30.08,SW,227,4.0,6.0,62,0.00,,,0.00,VWS V14.01,2013-04-26 16:48:00,
2013-04-26 09:49:00,67.3,53.4,30.08,West,266,4.0,4.0,61,0.00,,,0.00,VWS V14.01,2013-04-26 16:49:00,
2013-04-26 09:51:00,67.2,53.3,30.08,SW,225,2.0,2.0,61,0.00,,,0.00,VWS V14.01,2013-04-26 16:51:00,
2013-04-26 09:53:00,67.1,52.8,30.08,SW,225,3.0,3.0,60,0.00,,,0.00,VWS V14.01,2013-04-26 16:53:00,
2013-04-26 09:54:00,67.1,53.2,30.08,NNW,338,1.0,3.0,61,0.00,,,0.00,VWS V14.01,2013-04-26 16:54:00,
2013-04-26 09:55:00,67.3,53.0,30.08,NNW,328,1.0,1.0,60,0.00,,,0.00,VWS V14.01,2013-04-26 16:55:00,
2013-04-26 09:59:00,67.8,53.0,30.08,NW,325,2.0,2.0,59,0.00,,,0.00,VWS V14.01,2013-04-26 16:59:00,
2013-04-26 10:00:00,67.9,53.1,30.08,NW,326,2.0,2.0,59,0.00,,,0.00,VWS V14.01,2013-04-26 17:00:00,
2013-04-26 10:01:00,67.9,53.5,30.08,SW,232,0.0,1.0,60,0.00,,,0.00,VWS V14.01,2013-04-26 17:01:00,
2013-04-26 10:02:00,68.0,53.6,30.08,NNW,345,3.0,3.0,60,0.00,,,0.00,VWS V14.01,2013-04-26 17:02:00,
2013-04-26 10:04:00,68.1,53.2,30.08,WNW,290,1.0,1.0,59,0.00,,,0.00,VWS V14.01,2013-04-26 17:04:00,
2013-04-26 10:05:00,68.3,53.9,30.08,NNW,343,1.0,1.0,60,0.00,,,0.00,VWS V14.01,2013-04-26 17:05:00,
2013-04-26 10:07:00,68.6,54.2,30.08,West,260,2.0,3.0,60,0.00,,,0.00,VWS V14.01,2013-04-26 17:07:00,
2013-04-26 10:08:00,68.7,53.8,30.08,WSW,250,2.0,4.0,59,0.00,,,0.00,VWS V14.01,2013-04-26 17:08:00,
2013-04-26 10:11:00,68.8,54.4,30.08,West,281,3.0,3.0,60,0.00,,,0.00,VWS V14.01,2013-04-26 17:11:00,
2013-04-26 10:12:00,68.9,54.0,30.08,WSW,255,5.0,5.0,59,0.00,,,0.00,VWS V14.01,2013-04-26 17:12:00,
2013-04-26 10:13:00,68.9,54.0,30.08,West,264,2.0,4.0,59,0.00,,,0.00,VWS V14.01,2013-04-26 17:13:00,
2013-04-26 10:15:00,69.0,54.1,30.08,NNW,331,0.0,2.0,59,0.00,,,0.00,VWS V14.01,2013-04-26 17:15:00,
2013-04-26 10:16:00,69.2,54.3,30.08,WSW,253,2.0,2.0,59,0.00,,,0.00,VWS V14.01,2013-04-26 17:16:00,
2013-04-26 10:17:00,69.2,54.3,30.08,West,266,1.0,2.0,59,0.00,,,0.00,VWS V14.01,2013-04-26 17:17:00,
2013-04-26 10:18:00,69.3,53.9,30.08,NW,308,1.0,2.0,58,0.00,,,0.00,VWS V14.01,2013-04-26 17:18:00,
2013-04-26 10:20:00,69.6,53.7,30.08,WNW,295,1.0,2.0,57,0.00,,,0.00,VWS V14.01,2013-04-26 17:20:00,
2013-04-26 10:22:00,69.9,53.5,30.08,NW,304,2.0,2.0,56,0.00,,,0.00,VWS V14.01,2013-04-26 17:22:00,
2013-04-26 10:23:00,69.9,53.5,30.08,NNW,338,1.0,2.0,56,0.00,,,0.00,VWS V14.01,2013-04-26 17:23:00,
2013-04-26 10:25:00,70.0,53.6,30.07,NNW,330,3.0,4.0,56,0.00,,,0.00,VWS V14.01,2013-04-26 17:25:00,
2013-04-26 10:26:00,70.1,54.2,30.07,NNW,340,3.0,3.0,57,0.00,,,0.00,VWS V14.01,2013-04-26 17:26:00,
2013-04-26 10:28:00,70.1,53.2,30.07,North,5,2.0,5.0,55,0.00,,,0.00,VWS V14.01,2013-04-26 17:28:00,
2013-04-26 10:29:00,70.1,53.7,30.08,NW,326,1.0,3.0,56,0.00,,,0.00,VWS V14.01,2013-04-26 17:29:00,
2013-04-26 10:30:00,70.0,53.1,30.07,WSW,238,1.0,3.0,55,0.00,,,0.00,VWS V14.01,2013-04-26 17:30:00,
2013-04-26 10:32:00,70.0,53.6,30.07,WNW,290,2.0,2.0,56,0.00,,,0.00,VWS V14.01,2013-04-26 17:32:00,
2013-04-26 10:35:00,70.5,54.1,30.07,NW,321,1.0,5.0,56,0.00,,,0.00,VWS V14.01,2013-04-26 17:35:00,
2013-04-26 10:36:00,70.8,54.3,30.07,WNW,285,3.0,3.0,56,0.00,,,0.00,VWS V14.01,2013-04-26 17:36:00,
2013-04-26 10:38:00,71.1,53.6,30.07,NNW,333,2.0,5.0,54,0.00,,,0.00,VWS V14.01,2013-04-26 17:38:00,
2013-04-26 10:40:00,71.2,52.7,30.07,North,6,3.0,5.0,52,0.00,,,0.00,VWS V14.01,2013-04-26 17:40:00,
2013-04-26 10:42:00,71.3,52.8,30.07,WNW,302,1.0,3.0,52,0.00,,,0.00,VWS V14.01,2013-04-26 17:42:00,
2013-04-26 10:43:00,71.4,52.9,30.07,West,267,3.0,3.0,52,0.00,,,0.00,VWS V14.01,2013-04-26 17:43:00,
2013-04-26 10:44:00,71.4,53.4,30.07,WSW,255,2.0,3.0,53,0.00,,,0.00,VWS V14.01,2013-04-26 17:44:00,
2013-04-26 10:48:00,71.6,54.1,30.07,West,276,2.0,2.0,54,0.00,,,0.00,VWS V14.01,2013-04-26 17:48:00,
2013-04-26 10:49:00,71.7,53.7,30.07,WSW,248,2.0,2.0,53,0.00,,,0.00,VWS V14.01,2013-04-26 17:49:00,
2013-04-26 10:51:00,72.0,54.0,30.07,NNW,336,3.0,4.0,53,0.00,,,0.00,VWS V14.01,2013-04-26 17:51:00,
2013-04-26 10:55:00,72.2,52.5,30.07,West,266,1.0,1.0,50,0.00,,,0.00,VWS V14.01,2013-04-26 17:55:00,
2013-04-26 10:56:00,72.2,52.5,30.07,SW,226,3.0,5.0,50,0.00,,,0.00,VWS V14.01,2013-04-26 17:56:00,
2013-04-26 10:57:00,72.2,52.0,30.07,NW,304,2.0,6.0,49,0.00,,,0.00,VWS V14.01,2013-04-26 17:57:00,
2013-04-26 11:00:00,72.3,52.6,30.07,WSW,250,1.0,1.0,50,0.00,,,0.00,VWS V14.01,2013-04-26 18:00:00,
2013-04-26 11:02:00,72.6,52.9,30.07,West,269,1.0,5.0,50,0.00,,,0.00,VWS V14.01,2013-04-26 18:02:00,
2013-04-26 11:03:00,72.9,52.6,30.07,West,273,0.0,0.0,49,0.00,,,0.00,VWS V14.01,2013-04-26 18:03:00,
2013-04-26 11:04:00,73.0,52.7,30.07,SW,236,5.0,5.0,49,0.00,,,0.00,VWS V14.01,2013-04-26 18:04:00,
2013-04-26 11:06:00,73.0,52.7,30.07,NNW,336,4.0,5.0,49,0.00,,,0.00,VWS V14.01,2013-04-26 18:06:00,
2013-04-26 11:07:00,73.0,52.2,30.07,NNE,26,4.0,5.0,48,0.00,,,0.00,VWS V14.01,2013-04-26 18:07:00,
2013-04-26 11:08:00,73.0,52.7,30.07,NNE,18,3.0,5.0,49,0.00,,,0.00,VWS V14.01,2013-04-26 18:08:00,
2013-04-26 11:13:00,73.3,51.9,30.07,WSW,253,3.0,4.0,47,0.00,,,0.00,VWS V14.01,2013-04-26 18:13:00,
2013-04-26 11:14:00,73.3,52.5,30.07,WSW,246,1.0,3.0,48,0.00,,,0.00,VWS V14.01,2013-04-26 18:14:00,
2013-04-26 11:17:00,73.9,53.0,30.07,West,262,2.0,2.0,48,0.00,,,0.00,VWS V14.01,2013-04-26 18:17:00,
2013-04-26 11:19:00,74.2,52.7,30.07,NW,309,0.0,2.0,47,0.00,,,0.00,VWS V14.01,2013-04-26 18:19:00,
2013-04-26 11:21:00,74.4,53.5,30.07,WSW,246,6.0,6.0,48,0.00,,,0.00,VWS V14.01,2013-04-26 18:21:00,
2013-04-26 11:22:00,74.3,52.8,30.07,West,267,3.0,8.0,47,0.00,,,0.00,VWS V14.01,2013-04-26 18:22:00,
2013-04-26 11:24:00,74.2,52.7,30.07,WNW,285,3.0,6.0,47,0.00,,,0.00,VWS V14.01,2013-04-26 18:24:00,
2013-04-26 11:25:00,74.2,52.1,30.07,West,262,3.0,5.0,46,0.00,,,0.00,VWS V14.01,2013-04-26 18:25:00,
2013-04-26 11:27:00,74.2,52.1,30.07,West,262,3.0,3.0,46,0.00,,,0.00,VWS V14.01,2013-04-26 18:27:00,
2013-04-26 11:28:00,74.3,52.2,30.07,WNW,285,1.0,3.0,46,0.00,,,0.00,VWS V14.01,2013-04-26 18:28:00,
2013-04-26 11:29:00,74.4,52.3,30.07,WSW,257,3.0,3.0,46,0.00,,,0.00,VWS V14.01,2013-04-26 18:29:00,
2013-04-26 11:32:00,74.5,53.0,30.07,NW,319,1.0,2.0,47,0.00,,,0.00,VWS V14.01,2013-04-26 18:32:00,
2013-04-26 11:33:00,74.6,53.1,30.07,ENE,60,5.0,5.0,47,0.00,,,0.00,VWS V14.01,2013-04-26 18:33:00,
2013-04-26 11:34:00,74.8,53.8,30.07,WNW,293,3.0,5.0,48,0.00,,,0.00,VWS V14.01,2013-04-26 18:34:00,
2013-04-26 11:36:00,75.1,53.5,30.07,West,277,3.0,7.0,47,0.00,,,0.00,VWS V14.01,2013-04-26 18:36:00,
2013-04-26 11:38:00,75.3,53.1,30.07,West,271,3.0,3.0,46,0.00,,,0.00,VWS V14.01,2013-04-26 18:38:00,
2013-04-26 11:39:00,75.1,52.3,30.07,West,266,4.0,4.0,45,0.00,,,0.00,VWS V14.01,2013-04-26 18:39:00,
2013-04-26 11:41:00,75.1,52.9,30.07,West,266,0.0,1.0,46,0.00,,,0.00,VWS V14.01,2013-04-26 18:41:00,
2013-04-26 11:44:00,75.5,53.3,30.07,WSW,238,3.0,3.0,46,0.00,,,0.00,VWS V14.01,2013-04-26 18:44:00,
2013-04-26 11:45:00,75.7,53.5,30.07,West,264,3.0,3.0,46,0.00,,,0.00,VWS V14.01,2013-04-26 18:45:00,
2013-04-26 11:46:00,75.8,53.6,30.07,WSW,250,2.0,5.0,46,0.00,,,0.00,VWS V14.01,2013-04-26 18:46:00,
2013-04-26 11:47:00,75.9,53.7,30.07,NNE,12,1.0,2.0,46,0.00,,,0.00,VWS V14.01,2013-04-26 18:47:00,
2013-04-26 11:50:00,76.1,53.2,30.07,WNW,291,3.0,6.0,45,0.00,,,0.00,VWS V14.01,2013-04-26 18:50:00,
2013-04-26 11:51:00,76.1,53.2,30.07,North,4,2.0,6.0,45,0.00,,,0.00,VWS V14.01,2013-04-26 18:51:00,
2013-04-26 11:53:00,75.9,53.1,30.07,NW,326,2.0,2.0,45,0.00,,,0.00,VWS V14.01,2013-04-26 18:53:00,
2013-04-26 11:54:00,75.9,53.1,30.07,NW,307,0.0,1.0,45,0.00,,,0.00,VWS V14.01,2013-04-26 18:54:00,
2013-04-26 11:55:00,75.9,53.1,30.07,NW,307,0.0,1.0,45,0.00,,,0.00,VWS V14.01,2013-04-26 18:55:00,
2013-04-26 11:56:00,76.1,53.8,30.06,West,264,1.0,2.0,46,0.00,,,0.00,VWS V14.01,2013-04-26 18:56:00,
2013-04-26 11:57:00,76.4,54.1,30.06,WSW,247,6.0,6.0,46,0.00,,,0.00,VWS V14.01,2013-04-26 18:57:00,
2013-04-26 11:59:00,76.6,53.7,30.06,West,269,4.0,7.0,45,0.00,,,0.00,VWS V14.01,2013-04-26 18:59:00,
2013-04-26 12:01:00,76.3,52.2,30.06,West,276,3.0,8.0,43,0.00,,,0.00,VWS V14.01,2013-04-26 19:01:00,
2013-04-26 12:04:00,76.3,53.4,30.06,West,269,2.0,4.0,45,0.00,,,0.00,VWS V14.01,2013-04-26 19:04:00,
2013-04-26 12:05:00,76.5,54.2,30.06,NNW,331,3.0,4.0,46,0.00,,,0.00,VWS V14.01,2013-04-26 19:05:00,
2013-04-26 12:06:00,76.8,54.5,30.06,West,279,3.0,4.0,46,0.00,,,0.00,VWS V14.01,2013-04-26 19:06:00,
2013-04-26 12:07:00,77.0,53.4,30.06,North,359,1.0,3.0,44,0.00,,,0.00,VWS V14.01,2013-04-26 19:07:00,
2013-04-26 12:09:00,77.2,54.2,30.06,West,263,3.0,3.0,45,0.00,,,0.00,VWS V14.01,2013-04-26 19:09:00,
2013-04-26 12:10:00,77.5,54.5,30.06,WSW,248,3.0,3.0,45,0.00,,,0.00,VWS V14.01,2013-04-26 19:10:00,
2013-04-26 12:11:00,77.6,54.6,30.06,West,270,5.0,7.0,45,0.00,,,0.00,VWS V14.01,2013-04-26 19:11:00,
2013-04-26 12:12:00,77.5,53.9,30.06,NNE,23,3.0,5.0,44,0.00,,,0.00,VWS V14.01,2013-04-26 19:12:00,
2013-04-26 12:13:00,77.5,53.9,30.06,WSW,247,2.0,5.0,44,0.00,,,0.00,VWS V14.01,2013-04-26 19:13:00,
2013-04-26 12:15:00,77.2,53.6,30.06,NNW,331,3.0,6.0,44,0.00,,,0.00,VWS V14.01,2013-04-26 19:15:00,
2013-04-26 12:19:00,76.5,54.2,30.06,WSW,257,3.0,6.0,46,0.00,,,0.00,VWS V14.01,2013-04-26 19:19:00,
2013-04-26 12:20:00,76.4,54.1,30.06,WNW,283,2.0,5.0,46,0.00,,,0.00,VWS V14.01,2013-04-26 19:20:00,
2013-04-26 12:21:00,76.3,54.6,30.06,West,270,4.0,10.0,47,0.00,,,0.00,VWS V14.01,2013-04-26 19:21:00,
2013-04-26 12:24:00,76.2,53.9,30.06,WSW,238,4.0,7.0,46,0.00,,,0.00,VWS V14.01,2013-04-26 19:24:00,
2013-04-26 12:25:00,76.2,55.1,30.06,West,270,3.0,7.0,48,0.00,,,0.00,VWS V14.01,2013-04-26 19:25:00,
2013-04-26 12:26:00,76.2,54.5,30.06,West,273,1.0,4.0,47,0.00,,,0.00,VWS V14.01,2013-04-26 19:26:00,
2013-04-26 12:27:00,76.3,54.6,30.06,West,273,1.0,3.0,47,0.00,,,0.00,VWS V14.01,2013-04-26 19:27:00,
2013-04-26 12:30:00,76.0,54.3,30.06,WSW,256,5.0,7.0,47,0.00,,,0.00,VWS V14.01,2013-04-26 19:30:00,
2013-04-26 12:31:00,75.8,54.2,30.06,WSW,250,6.0,8.0,47,0.00,,,0.00,VWS V14.01,2013-04-26 19:31:00,
2013-04-26 12:33:00,75.4,54.4,30.06,SW,232,1.0,4.0,48,0.00,,,0.00,VWS V14.01,2013-04-26 19:33:00,
2013-04-26 12:34:00,75.5,54.5,30.06,NNW,332,2.0,3.0,48,0.00,,,0.00,VWS V14.01,2013-04-26 19:34:00,
2013-04-26 12:35:00,75.5,54.5,30.06,NNW,340,1.0,3.0,48,0.00,,,0.00,VWS V14.01,2013-04-26 19:35:00,
2013-04-26 12:36:00,75.8,54.7,30.06,West,270,1.0,4.0,48,0.00,,,0.00,VWS V14.01,2013-04-26 19:36:00,
2013-04-26 12:37:00,75.9,54.8,30.06,WSW,256,3.0,3.0,48,0.00,,,0.00,VWS V14.01,2013-04-26 19:37:00,
2013-04-26 12:39:00,76.3,55.2,30.06,WNW,285,4.0,5.0,48,0.00,,,0.00,VWS V14.01,2013-04-26 19:39:00,
2013-04-26 12:41:00,76.4,54.7,30.06,West,263,2.0,2.0,47,0.00,,,0.00,VWS V14.01,2013-04-26 19:41:00,
2013-04-26 12:42:00,76.3,55.2,30.06,WNW,297,2.0,5.0,48,0.00,,,0.00,VWS V14.01,2013-04-26 19:42:00,
2013-04-26 12:44:00,76.1,54.4,30.06,West,279,4.0,9.0,47,0.00,,,0.00,VWS V14.01,2013-04-26 19:44:00,
2013-04-26 12:47:00,75.6,54.5,30.06,SW,236,3.0,8.0,48,0.00,,,0.00,VWS V14.01,2013-04-26 19:47:00,
2013-04-26 12:48:00,75.7,54.6,30.06,WSW,257,8.0,9.0,48,0.00,,,0.00,VWS V14.01,2013-04-26 19:48:00,
2013-04-26 12:50:00,75.5,53.9,30.06,WSW,245,4.0,11.0,47,0.00,,,0.00,VWS V14.01,2013-04-26 19:50:00,
2013-04-26 12:53:00,75.2,53.0,30.06,WSW,248,10.0,12.0,46,0.00,,,0.00,VWS V14.01,2013-04-26 19:53:00,
2013-04-26 12:54:00,74.8,53.2,30.06,West,263,6.0,12.0,47,0.00,,,0.00,VWS V14.01,2013-04-26 19:54:00,
2013-04-26 12:55:00,74.4,52.9,30.06,SSE,164,5.0,10.0,47,0.00,,,0.00,VWS V14.01,2013-04-26 19:55:00,
2013-04-26 12:58:00,74.6,53.1,30.06,West,276,10.0,11.0,47,0.00,,,0.00,VWS V14.01,2013-04-26 19:58:00,
2013-04-26 12:59:00,74.4,52.9,30.06,West,278,11.0,15.0,47,0.00,,,0.00,VWS V14.01,2013-04-26 19:59:00,
2013-04-26 13:00:00,74.1,52.6,30.06,WSW,238,9.0,13.0,47,0.00,,,0.00,VWS V14.01,2013-04-26 20:00:00,
2013-04-26 13:01:00,73.9,52.4,30.06,West,271,8.0,14.0,47,0.00,,,0.00,VWS V14.01,2013-04-26 20:01:00,
2013-04-26 13:03:00,73.6,52.7,30.06,West,279,10.0,10.0,48,0.00,,,0.00,VWS V14.01,2013-04-26 20:03:00,
2013-04-26 13:04:00,73.5,52.6,30.06,West,277,5.0,10.0,48,0.00,,,0.00,VWS V14.01,2013-04-26 20:04:00,
2013-04-26 13:05:00,73.5,52.6,30.05,WNW,290,10.0,11.0,48,0.00,,,0.00,VWS V14.01,2013-04-26 20:05:00,
2013-04-26 13:06:00,73.4,52.0,30.06,WSW,243,7.0,12.0,47,0.00,,,0.00,VWS V14.01,2013-04-26 20:06:00,
2013-04-26 13:09:00,73.4,52.5,30.06,West,269,12.0,13.0,48,0.00,,,0.00,VWS V14.01,2013-04-26 20:09:00,
2013-04-26 13:10:00,73.4,52.5,30.05,SW,219,4.0,12.0,48,0.00,,,0.00,VWS V14.01,2013-04-26 20:10:00,
2013-04-26 13:12:00,73.6,52.7,30.05,West,276,3.0,9.0,48,0.00,,,0.00,VWS V14.01,2013-04-26 20:12:00,
2013-04-26 13:14:00,74.0,53.1,30.05,NW,308,4.0,9.0,48,0.00,,,0.00,VWS V14.01,2013-04-26 20:14:00,
2013-04-26 13:15:00,74.1,52.6,30.05,WNW,293,4.0,10.0,47,0.00,,,0.00,VWS V14.01,2013-04-26 20:15:00,
2013-04-26 13:17:00,74.6,53.1,30.05,WSW,250,5.0,12.0,47,0.00,,,0.00,VWS V14.01,2013-04-26 20:17:00,
2013-04-26 13:18:00,74.8,53.2,30.05,WNW,287,9.0,12.0,47,0.00,,,0.00,VWS V14.01,2013-04-26 20:18:00,
2013-04-26 13:19:00,74.8,53.2,30.05,West,259,7.0,9.0,47,0.00,,,0.00,VWS V14.01,2013-04-26 20:19:00,
2013-04-26 13:21:00,74.9,52.2,30.05,West,267,8.0,11.0,45,0.00,,,0.00,VWS V14.01,2013-04-26 20:21:00,
2013-04-26 13:23:00,74.6,51.9,30.05,West,261,5.0,7.0,45,0.00,,,0.00,VWS V14.01,2013-04-26 20:23:00,
2013-04-26 13:24:00,74.6,52.5,30.05,West,266,7.0,9.0,46,0.00,,,0.00,VWS V14.01,2013-04-26 20:24:00,
2013-04-26 13:25:00,74.6,52.5,30.05,WNW,294,8.0,9.0,46,0.00,,,0.00,VWS V14.01,2013-04-26 20:25:00,
2013-04-26 13:26:00,74.7,52.6,30.05,WNW,287,8.0,10.0,46,0.00,,,0.00,VWS V14.01,2013-04-26 20:26:00,
2013-04-26 13:27:00,74.6,52.5,30.05,WSW,238,7.0,11.0,46,0.00,,,0.00,VWS V14.01,2013-04-26 20:27:00,
2013-04-26 13:30:00,74.5,51.8,30.05,West,278,8.0,9.0,45,0.00,,,0.00,VWS V14.01,2013-04-26 20:30:00,
2013-04-26 13:31:00,74.6,52.5,30.05,West,262,10.0,10.0,46,0.00,,,0.00,VWS V14.01,2013-04-26 20:31:00,
2013-04-26 13:32:00,74.6,51.9,30.05,West,262,13.0,14.0,45,0.00,,,0.00,VWS V14.01,2013-04-26 20:32:00,
2013-04-26 13:36:00,74.9,52.8,30.05,WSW,243,5.0,7.0,46,0.00,,,0.00,VWS V14.01,2013-04-26 20:36:00,
2013-04-26 13:37:00,75.0,52.2,30.05,NW,316,5.0,10.0,45,0.00,,,0.00,VWS V14.01,2013-04-26 20:37:00,
2013-04-26 13:38:00,75.0,52.2,30.05,WSW,257,8.0,12.0,45,0.00,,,0.00,VWS V14.01,2013-04-26 20:38:00,
2013-04-26 13:40:00,75.1,52.9,30.05,West,271,7.0,9.0,46,0.00,,,0.00,VWS V14.01,2013-04-26 20:40:00,
2013-04-26 13:42:00,74.9,51.5,30.05,WNW,284,9.0,13.0,44,0.00,,,0.00,VWS V14.01,2013-04-26 20:42:00,
2013-04-26 13:44:00,74.6,51.9,30.05,South,190,8.0,9.0,45,0.00,,,0.00,VWS V14.01,2013-04-26 20:44:00,
2013-04-26 13:47:00,74.8,52.7,30.05,WSW,249,5.0,6.0,46,0.00,,,0.00,VWS V14.01,2013-04-26 20:47:00,
2013-04-26 13:48:00,75.1,52.9,30.05,WSW,248,3.0,5.0,46,0.00,,,0.00,VWS V14.01,2013-04-26 20:48:00,
2013-04-26 13:49:00,75.5,53.3,30.05,SW,232,3.0,4.0,46,0.00,,,0.00,VWS V14.01,2013-04-26 20:49:00,
2013-04-26 13:52:00,76.0,52.5,30.05,WSW,250,8.0,13.0,44,0.00,,,0.00,VWS V14.01,2013-04-26 20:52:00,
2013-04-26 13:53:00,76.0,53.2,30.05,NNE,25,1.0,8.0,45,0.00,,,0.00,VWS V14.01,2013-04-26 20:53:00,
2013-04-26 13:54:00,76.2,53.3,30.05,NNW,337,8.0,8.0,45,0.00,,,0.00,VWS V14.01,2013-04-26 20:54:00,
2013-04-26 13:56:00,76.5,53.0,30.05,West,270,5.0,7.0,44,0.00,,,0.00,VWS V14.01,2013-04-26 20:56:00,
2013-04-26 13:57:00,76.6,53.1,30.05,SW,214,3.0,6.0,44,0.00,,,0.00,VWS V14.01,2013-04-26 20:57:00,
2013-04-26 13:59:00,76.5,52.4,30.05,West,272,1.0,6.0,43,0.00,,,0.00,VWS V14.01,2013-04-26 20:59:00,
2013-04-26 14:00:00,76.5,53.0,30.05,NW,312,2.0,3.0,44,0.00,,,0.00,VWS V14.01,2013-04-26 21:00:00,
2013-04-26 14:01:00,76.6,52.5,30.05,WSW,245,10.0,10.0,43,0.00,,,0.00,VWS V14.01,2013-04-26 21:01:00,
2013-04-26 14:03:00,76.7,53.2,30.05,WSW,243,1.0,4.0,44,0.00,,,0.00,VWS V14.01,2013-04-26 21:03:00,
2013-04-26 14:04:00,76.9,53.3,30.05,WSW,240,8.0,8.0,44,0.00,,,0.00,VWS V14.01,2013-04-26 21:04:00,
2013-04-26 14:06:00,76.8,52.6,30.05,WSW,252,5.0,13.0,43,0.00,,,0.00,VWS V14.01,2013-04-26 21:06:00,
2013-04-26 14:08:00,76.3,52.2,30.04,WSW,250,8.0,10.0,43,0.00,,,0.00,VWS V14.01,2013-04-26 21:08:00,
2013-04-26 14:09:00,76.1,52.6,30.04,WSW,242,5.0,8.0,44,0.00,,,0.00,VWS V14.01,2013-04-26 21:09:00,
2013-04-26 14:11:00,75.8,52.4,30.05,WSW,243,8.0,11.0,44,0.00,,,0.00,VWS V14.01,2013-04-26 21:11:00,
2013-04-26 14:12:00,75.7,52.3,30.05,WSW,250,6.0,10.0,44,0.00,,,0.00,VWS V14.01,2013-04-26 21:12:00,
2013-04-26 14:14:00,75.7,52.9,30.04,West,269,7.0,7.0,45,0.00,,,0.00,VWS V14.01,2013-04-26 21:14:00,
2013-04-26 14:15:00,75.6,52.2,30.04,WSW,247,7.0,12.0,44,0.00,,,0.00,VWS V14.01,2013-04-26 21:15:00,
2013-04-26 14:17:00,75.2,52.4,30.04,WSW,250,5.0,11.0,45,0.00,,,0.00,VWS V14.01,2013-04-26 21:17:00,
2013-04-26 14:18:00,75.1,52.3,30.04,WSW,250,12.0,14.0,45,0.00,,,0.00,VWS V14.01,2013-04-26 21:18:00,
2013-04-26 14:22:00,75.3,53.1,30.04,WNW,294,4.0,7.0,46,0.00,,,0.00,VWS V14.01,2013-04-26 21:22:00,
2013-04-26 14:23:00,75.5,52.7,30.04,NW,308,5.0,11.0,45,0.00,,,0.00,VWS V14.01,2013-04-26 21:23:00,
2013-04-26 14:24:00,75.5,52.7,30.04,WSW,246,8.0,10.0,45,0.00,,,0.00,VWS V14.01,2013-04-26 21:24:00,
2013-04-26 14:28:00,75.6,52.2,30.04,West,270,4.0,10.0,44,0.00,,,0.00,VWS V14.01,2013-04-26 21:28:00,
2013-04-26 14:29:00,75.8,53.0,30.04,WSW,255,6.0,10.0,45,0.00,,,0.00,VWS V14.01,2013-04-26 21:29:00,
2013-04-26 14:33:00,75.5,52.1,30.04,WNW,285,4.0,6.0,44,0.00,,,0.00,VWS V14.01,2013-04-26 21:33:00,
2013-04-26 14:34:00,75.4,52.6,30.04,West,266,6.0,8.0,45,0.00,,,0.00,VWS V14.01,2013-04-26 21:34:00,
2013-04-26 14:35:00,75.4,53.2,30.04,WSW,248,9.0,12.0,46,0.00,,,0.00,VWS V14.01,2013-04-26 21:35:00,
2013-04-26 14:36:00,75.2,52.4,30.04,West,280,11.0,11.0,45,0.00,,,0.00,VWS V14.01,2013-04-26 21:36:00,
2013-04-26 14:40:00,74.6,52.5,30.04,SSW,204,5.0,11.0,46,0.00,,,0.00,VWS V14.01,2013-04-26 21:40:00,
2013-04-26 14:41:00,74.5,52.4,30.04,WSW,248,11.0,11.0,46,0.00,,,0.00,VWS V14.01,2013-04-26 21:41:00,
2013-04-26 14:42:00,74.5,53.0,30.04,WNW,284,5.0,11.0,47,0.00,,,0.00,VWS V14.01,2013-04-26 21:42:00,
2013-04-26 14:43:00,74.4,52.9,30.04,West,264,5.0,9.0,47,0.00,,,0.00,VWS V14.01,2013-04-26 21:43:00,
2013-04-26 14:45:00,74.6,52.5,30.04,West,264,13.0,13.0,46,0.00,,,0.00,VWS V14.01,2013-04-26 21:45:00,
2013-04-26 14:46:00,74.5,51.8,30.04,WSW,256,8.0,13.0,45,0.00,,,0.00,VWS V14.01,2013-04-26 21:46:00,
2013-04-26 14:47:00,74.2,52.1,30.04,West,271,5.0,10.0,46,0.00,,,0.00,VWS V14.01,2013-04-26 21:47:00,
2013-04-26 14:50:00,73.8,51.8,30.04,SW,236,6.0,10.0,46,0.00,,,0.00,VWS V14.01,2013-04-26 21:50:00,
2013-04-26 14:52:00,73.8,52.3,30.04,WNW,287,6.0,9.0,47,0.00,,,0.00,VWS V14.01,2013-04-26 21:52:00,
2013-04-26 14:53:00,73.9,52.4,30.04,WSW,247,6.0,10.0,47,0.00,,,0.00,VWS V14.01,2013-04-26 21:53:00,
2013-04-26 14:55:00,74.2,52.1,30.04,SW,224,4.0,9.0,46,0.00,,,0.00,VWS V14.01,2013-04-26 21:55:00,
2013-04-26 14:59:00,74.8,52.1,30.04,SW,236,5.0,5.0,45,0.00,,,0.00,VWS V14.01,2013-04-26 21:59:00,
2013-04-26 15:00:00,74.7,52.0,30.04,WSW,243,2.0,5.0,45,0.00,,,0.00,VWS V14.01,2013-04-26 22:00:00,
2013-04-26 15:02:00,74.5,51.8,30.04,West,261,8.0,8.0,45,0.00,,,0.00,VWS V14.01,2013-04-26 22:02:00,
2013-04-26 15:03:00,74.3,52.2,30.04,WSW,257,7.0,7.0,46,0.00,,,0.00,VWS V14.01,2013-04-26 22:03:00,
2013-04-26 15:04:00,74.1,52.0,30.04,WNW,283,7.0,7.0,46,0.00,,,0.00,VWS V14.01,2013-04-26 22:04:00,
2013-04-26 15:05:00,74.0,51.9,30.04,South,188,4.0,8.0,46,0.00,,,0.00,VWS V14.01,2013-04-26 22:05:00,
2013-04-26 15:09:00,74.0,52.5,30.03,WNW,287,7.0,7.0,47,0.00,,,0.00,VWS V14.01,2013-04-26 22:09:00,
2013-04-26 15:11:00,73.8,52.3,30.03,SW,215,5.0,12.0,47,0.00,,,0.00,VWS V14.01,2013-04-26 22:11:00,
2013-04-26 15:15:00,73.8,52.3,30.03,SSW,211,7.0,7.0,47,0.00,,,0.00,VWS V14.01,2013-04-26 22:15:00,
2013-04-26 15:16:00,73.9,53.0,30.03,SW,229,4.0,4.0,48,0.00,,,0.00,VWS V14.01,2013-04-26 22:16:00,
2013-04-26 15:19:00,73.9,53.0,30.03,West,266,6.0,9.0,48,0.00,,,0.00,VWS V14.01,2013-04-26 22:19:00,
2013-04-26 15:20:00,73.9,53.0,30.03,WNW,287,8.0,10.0,48,0.00,,,0.00,VWS V14.01,2013-04-26 22:20:00,
2013-04-26 15:21:00,73.8,52.3,30.03,WSW,250,8.0,11.0,47,0.00,,,0.00,VWS V14.01,2013-04-26 22:21:00,
2013-04-26 15:22:00,73.5,52.6,30.03,WSW,256,7.0,10.0,48,0.00,,,0.00,VWS V14.01,2013-04-26 22:22:00,
2013-04-26 15:24:00,73.2,52.4,30.03,SW,215,9.0,11.0,48,0.00,,,0.00,VWS V14.01,2013-04-26 22:24:00,
2013-04-26 15:25:00,73.1,52.3,30.03,WSW,253,5.0,11.0,48,0.00,,,0.00,VWS V14.01,2013-04-26 22:25:00,
2013-04-26 15:26:00,73.1,52.3,30.03,WSW,247,9.0,10.0,48,0.00,,,0.00,VWS V14.01,2013-04-26 22:26:00,
2013-04-26 15:28:00,73.4,53.1,30.03,WSW,256,5.0,5.0,49,0.00,,,0.00,VWS V14.01,2013-04-26 22:28:00,
2013-04-26 15:29:00,73.5,53.2,30.03,WSW,250,8.0,8.0,49,0.00,,,0.00,VWS V14.01,2013-04-26 22:29:00,
2013-04-26 15:31:00,73.5,53.2,30.03,West,281,7.0,7.0,49,0.00,,,0.00,VWS V14.01,2013-04-26 22:31:00,
2013-04-26 15:32:00,73.4,53.1,30.03,WSW,246,3.0,4.0,49,0.00,,,0.00,VWS V14.01,2013-04-26 22:32:00,
2013-04-26 15:34:00,73.5,53.7,30.03,WNW,285,2.0,3.0,50,0.00,,,0.00,VWS V14.01,2013-04-26 22:34:00,
2013-04-26 15:36:00,73.9,53.0,30.03,SSW,197,6.0,10.0,48,0.00,,,0.00,VWS V14.01,2013-04-26 22:36:00,
2013-04-26 15:37:00,73.9,53.0,30.03,West,261,6.0,8.0,48,0.00,,,0.00,VWS V14.01,2013-04-26 22:37:00,
2013-04-26 15:39:00,73.7,53.4,30.03,West,278,5.0,10.0,49,0.00,,,0.00,VWS V14.01,2013-04-26 22:39:00,
2013-04-26 15:41:00,73.5,53.7,30.03,West,266,6.0,9.0,50,0.00,,,0.00,VWS V14.01,2013-04-26 22:41:00,
2013-04-26 15:42:00,73.5,53.2,30.03,WSW,253,8.0,9.0,49,0.00,,,0.00,VWS V14.01,2013-04-26 22:42:00,
2013-04-26 15:43:00,73.4,53.1,30.03,West,261,5.0,8.0,49,0.00,,,0.00,VWS V14.01,2013-04-26 22:43:00,
2013-04-26 15:44:00,73.3,53.6,30.03,WNW,284,4.0,8.0,50,0.00,,,0.00,VWS V14.01,2013-04-26 22:44:00,
2013-04-26 15:47:00,73.5,54.3,30.03,West,260,3.0,3.0,51,0.00,,,0.00,VWS V14.01,2013-04-26 22:47:00,
2013-04-26 15:48:00,73.7,53.9,30.03,West,277,3.0,4.0,50,0.00,,,0.00,VWS V14.01,2013-04-26 22:48:00,
2013-04-26 15:50:00,73.9,54.7,30.03,WSW,256,4.0,6.0,51,0.00,,,0.00,VWS V14.01,2013-04-26 22:50:00,
2013-04-26 15:51:00,74.1,54.3,30.03,West,262,8.0,8.0,50,0.00,,,0.00,VWS V14.01,2013-04-26 22:51:00,
2013-04-26 15:52:00,74.1,54.3,30.03,North,351,3.0,9.0,50,0.00,,,0.00,VWS V14.01,2013-04-26 22:52:00,
2013-04-26 15:54:00,73.8,54.0,30.03,South,173,4.0,7.0,50,0.00,,,0.00,VWS V14.01,2013-04-26 22:54:00,
2013-04-26 15:55:00,73.8,54.0,30.02,SW,227,6.0,6.0,50,0.00,,,0.00,VWS V14.01,2013-04-26 22:55:00,
2013-04-26 15:56:00,73.9,54.7,30.02,WSW,255,8.0,10.0,51,0.00,,,0.00,VWS V14.01,2013-04-26 22:56:00,
2013-04-26 15:57:00,74.0,54.2,30.03,West,274,9.0,11.0,50,0.00,,,0.00,VWS V14.01,2013-04-26 22:57:00,
2013-04-26 16:00:00,73.5,53.7,30.03,West,276,4.0,6.0,50,0.00,,,0.00,VWS V14.01,2013-04-26 23:00:00,
2013-04-26 16:01:00,73.3,53.6,30.02,West,277,4.0,6.0,50,0.00,,,0.00,VWS V14.01,2013-04-26 23:01:00,
2013-04-26 16:02:00,73.4,54.2,30.02,West,269,5.0,8.0,51,0.00,,,0.00,VWS V14.01,2013-04-26 23:02:00,
2013-04-26 16:06:00,73.4,53.7,30.02,West,276,7.0,11.0,50,0.00,,,0.00,VWS V14.01,2013-04-26 23:06:00,
2013-04-26 16:07:00,73.4,53.7,30.02,WSW,242,5.0,8.0,50,0.00,,,0.00,VWS V14.01,2013-04-26 23:07:00,
2013-04-26 16:08:00,73.5,54.3,30.02,SW,222,2.0,4.0,51,0.00,,,0.00,VWS V14.01,2013-04-26 23:08:00,
2013-04-26 16:12:00,73.6,53.8,30.02,WSW,252,7.0,10.0,50,0.00,,,0.00,VWS V14.01,2013-04-26 23:12:00,
2013-04-26 16:13:00,73.5,53.7,30.02,WNW,290,8.0,11.0,50,0.00,,,0.00,VWS V14.01,2013-04-26 23:13:00,
2013-04-26 16:14:00,73.5,53.7,30.02,West,269,4.0,4.0,50,0.00,,,0.00,VWS V14.01,2013-04-26 23:14:00,
2013-04-26 16:15:00,73.6,53.8,30.02,West,269,5.0,7.0,50,0.00,,,0.00,VWS V14.01,2013-04-26 23:15:00,
2013-04-26 16:18:00,74.2,54.4,30.02,WSW,250,5.0,5.0,50,0.00,,,0.00,VWS V14.01,2013-04-26 23:18:00,
2013-04-26 16:19:00,74.2,53.8,30.02,WSW,255,4.0,5.0,49,0.00,,,0.00,VWS V14.01,2013-04-26 23:19:00,
2013-04-26 16:20:00,74.2,53.8,30.02,WSW,253,3.0,6.0,49,0.00,,,0.00,VWS V14.01,2013-04-26 23:20:00,
2013-04-26 16:22:00,74.3,53.9,30.02,SW,233,7.0,8.0,49,0.00,,,0.00,VWS V14.01,2013-04-26 23:22:00,
2013-04-26 16:24:00,74.2,53.8,30.02,West,269,3.0,4.0,49,0.00,,,0.00,VWS V14.01,2013-04-26 23:24:00,
2013-04-26 16:26:00,74.2,53.8,30.02,WNW,291,5.0,6.0,49,0.00,,,0.00,VWS V14.01,2013-04-26 23:26:00,
2013-04-26 16:27:00,74.4,54.0,30.02,SW,227,4.0,8.0,49,0.00,,,0.00,VWS V14.01,2013-04-26 23:27:00,
2013-04-26 16:30:00,74.1,53.7,30.02,West,279,5.0,8.0,49,0.00,,,0.00,VWS V14.01,2013-04-26 23:30:00,
2013-04-26 16:31:00,74.1,53.7,30.02,SW,233,5.0,7.0,49,0.00,,,0.00,VWS V14.01,2013-04-26 23:31:00,
2013-04-26 16:33:00,74.0,53.7,30.02,WSW,253,5.0,5.0,49,0.00,,,0.00,VWS V14.01,2013-04-26 23:33:00,
2013-04-26 16:34:00,73.9,53.6,30.02,NW,309,3.0,6.0,49,0.00,,,0.00,VWS V14.01,2013-04-26 23:34:00,
2013-04-26 16:35:00,74.0,54.2,30.02,WSW,253,6.0,11.0,50,0.00,,,0.00,VWS V14.01,2013-04-26 23:35:00,
2013-04-26 16:37:00,73.9,53.6,30.02,WSW,252,5.0,5.0,49,0.00,,,0.00,VWS V14.01,2013-04-26 23:37:00,
2013-04-26 16:39:00,74.0,53.7,30.02,WNW,298,2.0,3.0,49,0.00,,,0.00,VWS V14.01,2013-04-26 23:39:00,
2013-04-26 16:42:00,74.4,53.5,30.02,West,275,3.0,10.0,48,0.00,,,0.00,VWS V14.01,2013-04-26 23:42:00,
2013-04-26 16:43:00,74.5,53.5,30.02,WNW,283,6.0,6.0,48,0.00,,,0.00,VWS V14.01,2013-04-26 23:43:00,
2013-04-26 16:44:00,74.5,53.5,30.02,NW,307,3.0,7.0,48,0.00,,,0.00,VWS V14.01,2013-04-26 23:44:00,
2013-04-26 16:48:00,74.6,53.6,30.02,West,277,5.0,9.0,48,0.00,,,0.00,VWS V14.01,2013-04-26 23:48:00,
2013-04-26 16:49:00,74.5,53.0,30.02,NW,319,7.0,11.0,47,0.00,,,0.00,VWS V14.01,2013-04-26 23:49:00,
2013-04-26 16:50:00,74.2,52.7,30.02,West,269,3.0,6.0,47,0.00,,,0.00,VWS V14.01,2013-04-26 23:50:00,
2013-04-26 17:05:00,73.2,52.9,30.02,WSW,252,9.0,9.0,49,0.00,,,0.00,VWS V14.01,2013-04-27 00:05:00,
2013-04-26 17:06:00,73.2,52.9,30.02,West,273,5.0,10.0,49,0.00,,,0.00,VWS V14.01,2013-04-27 00:06:00,
2013-04-26 17:07:00,73.1,52.8,30.02,West,263,6.0,7.0,49,0.00,,,0.00,VWS V14.01,2013-04-27 00:07:00,
2013-04-26 17:08:00,73.1,52.8,30.02,West,259,4.0,6.0,49,0.00,,,0.00,VWS V14.01,2013-04-27 00:08:00,
2013-04-26 17:13:00,72.9,52.6,30.02,WSW,246,3.0,8.0,49,0.00,,,0.00,VWS V14.01,2013-04-27 00:13:00,
2013-04-26 17:14:00,72.9,53.2,30.02,WNW,288,5.0,5.0,50,0.00,,,0.00,VWS V14.01,2013-04-27 00:14:00,
2013-04-26 17:15:00,72.8,53.1,30.02,West,271,7.0,9.0,50,0.00,,,0.00,VWS V14.01,2013-04-27 00:15:00,
2013-04-26 17:16:00,72.7,53.0,30.02,WSW,243,6.0,7.0,50,0.00,,,0.00,VWS V14.01,2013-04-27 00:16:00,
2013-04-26 17:18:00,72.9,53.7,30.02,West,261,1.0,3.0,51,0.00,,,0.00,VWS V14.01,2013-04-27 00:18:00,
2013-04-26 17:19:00,73.1,53.9,30.02,West,276,4.0,8.0,51,0.00,,,0.00,VWS V14.01,2013-04-27 00:19:00,
2013-04-26 17:20:00,73.3,54.1,30.02,West,280,5.0,5.0,51,0.00,,,0.00,VWS V14.01,2013-04-27 00:20:00,
2013-04-26 17:21:00,73.3,53.6,30.02,WSW,254,5.0,8.0,50,0.00,,,0.00,VWS V14.01,2013-04-27 00:21:00,
2013-04-26 17:22:00,73.3,53.6,30.02,West,264,6.0,9.0,50,0.00,,,0.00,VWS V14.01,2013-04-27 00:22:00,
2013-04-26 17:24:00,72.8,53.1,30.02,WSW,242,8.0,10.0,50,0.00,,,0.00,VWS V14.01,2013-04-27 00:24:00,
2013-04-26 17:25:00,72.5,52.8,30.02,WSW,257,6.0,8.0,50,0.00,,,0.00,VWS V14.01,2013-04-27 00:25:00,
2013-04-26 17:27:00,72.2,53.1,30.02,WSW,249,8.0,8.0,51,0.00,,,0.00,VWS V14.01,2013-04-27 00:27:00,
2013-04-26 17:28:00,72.1,52.5,30.02,West,266,5.0,8.0,50,0.00,,,0.00,VWS V14.01,2013-04-27 00:28:00,
2013-04-26 17:29:00,72.0,52.9,30.02,WSW,253,6.0,8.0,51,0.00,,,0.00,VWS V14.01,2013-04-27 00:29:00,
2013-04-26 17:32:00,72.1,53.0,30.02,WSW,242,3.0,6.0,51,0.00,,,0.00,VWS V14.01,2013-04-27 00:32:00,
2013-04-26 17:35:00,72.4,52.7,30.02,West,281,4.0,8.0,50,0.00,,,0.00,VWS V14.01,2013-04-27 00:35:00,
2013-04-26 17:37:00,72.5,52.8,30.02,WSW,248,7.0,10.0,50,0.00,,,0.00,VWS V14.01,2013-04-27 00:37:00,
2013-04-26 17:38:00,72.4,52.7,30.02,WSW,252,4.0,6.0,50,0.00,,,0.00,VWS V14.01,2013-04-27 00:38:00,
2013-04-26 17:40:00,72.4,52.7,30.01,West,276,4.0,5.0,50,0.00,,,0.00,VWS V14.01,2013-04-27 00:40:00,
2013-04-26 17:43:00,72.5,52.8,30.02,WNW,298,3.0,6.0,50,0.00,,,0.00,VWS V14.01,2013-04-27 00:43:00,
2013-04-26 17:45:00,72.6,52.9,30.01,SW,235,2.0,8.0,50,0.00,,,0.00,VWS V14.01,2013-04-27 00:45:00,
2013-04-26 17:46:00,72.6,52.9,30.01,SW,233,3.0,7.0,50,0.00,,,0.00,VWS V14.01,2013-04-27 00:46:00,
2013-04-26 17:49:00,72.4,52.7,30.01,West,260,6.0,7.0,50,0.00,,,0.00,VWS V14.01,2013-04-27 00:49:00,
2013-04-26 17:50:00,72.3,52.6,30.01,West,261,3.0,7.0,50,0.00,,,0.00,VWS V14.01,2013-04-27 00:50:00,
2013-04-26 17:52:00,72.1,52.5,30.02,WNW,301,4.0,9.0,50,0.00,,,0.00,VWS V14.01,2013-04-27 00:52:00,
2013-04-26 17:53:00,72.0,52.4,30.02,WNW,285,4.0,8.0,50,0.00,,,0.00,VWS V14.01,2013-04-27 00:53:00,
2013-04-26 17:55:00,71.9,52.8,30.02,West,262,3.0,6.0,51,0.00,,,0.00,VWS V14.01,2013-04-27 00:55:00,
2013-04-26 17:58:00,72.1,53.0,30.02,WNW,295,2.0,5.0,51,0.00,,,0.00,VWS V14.01,2013-04-27 00:58:00,
2013-04-26 17:59:00,72.3,53.2,30.02,West,281,2.0,5.0,51,0.00,,,0.00,VWS V14.01,2013-04-27 00:59:00,
2013-04-26 18:01:00,72.5,52.8,30.02,WSW,252,6.0,8.0,50,0.00,,,0.00,VWS V14.01,2013-04-27 01:01:00,
2013-04-26 18:02:00,72.5,52.8,30.02,West,281,2.0,2.0,50,0.00,,,0.00,VWS V14.01,2013-04-27 01:02:00,
2013-04-26 18:03:00,72.6,52.9,30.02,WSW,245,6.0,6.0,50,0.00,,,0.00,VWS V14.01,2013-04-27 01:03:00,
2013-04-26 18:05:00,72.6,52.9,30.02,SW,233,5.0,5.0,50,0.00,,,0.00,VWS V14.01,2013-04-27 01:05:00,
2013-04-26 18:06:00,72.6,52.9,30.02,West,274,3.0,3.0,50,0.00,,,0.00,VWS V14.01,2013-04-27 01:06:00,
2013-04-26 18:08:00,72.6,52.9,30.02,NNW,345,2.0,2.0,50,0.00,,,0.00,VWS V14.01,2013-04-27 01:08:00,
2013-04-26 18:09:00,72.6,52.9,30.02,SW,231,5.0,6.0,50,0.00,,,0.00,VWS V14.01,2013-04-27 01:09:00,
2013-04-26 18:11:00,72.6,52.9,30.01,West,280,2.0,4.0,50,0.00,,,0.00,VWS V14.01,2013-04-27 01:11:00,
2013-04-26 18:13:00,72.7,53.0,30.02,NW,324,1.0,3.0,50,0.00,,,0.00,VWS V14.01,2013-04-27 01:13:00,
2013-04-26 18:15:00,72.9,53.2,30.02,NNW,345,1.0,2.0,50,0.00,,,0.00,VWS V14.01,2013-04-27 01:15:00,
2013-04-26 18:16:00,72.9,53.2,30.02,NNW,333,2.0,2.0,50,0.00,,,0.00,VWS V14.01,2013-04-27 01:16:00,
2013-04-26 18:17:00,73.0,53.3,30.02,West,274,1.0,4.0,50,0.00,,,0.00,VWS V14.01,2013-04-27 01:17:00,
2013-04-26 18:20:00,73.0,53.3,30.02,NNW,339,1.0,5.0,50,0.00,,,0.00,VWS V14.01,2013-04-27 01:20:00,
2013-04-26 18:21:00,73.0,53.3,30.02,WNW,288,2.0,2.0,50,0.00,,,0.00,VWS V14.01,2013-04-27 01:21:00,
2013-04-26 18:22:00,72.9,53.2,30.02,North,352,1.0,2.0,50,0.00,,,0.00,VWS V14.01,2013-04-27 01:22:00,
2013-04-26 18:23:00,72.9,53.2,30.02,NNW,333,1.0,2.0,50,0.00,,,0.00,VWS V14.01,2013-04-27 01:23:00,
2013-04-26 18:26:00,72.3,53.2,30.02,NW,309,3.0,6.0,51,0.00,,,0.00,VWS V14.01,2013-04-27 01:26:00,
2013-04-26 18:28:00,71.9,53.3,30.02,NNE,18,2.0,3.0,52,0.00,,,0.00,VWS V14.01,2013-04-27 01:28:00,
2013-04-26 18:29:00,71.7,53.2,30.02,North,353,5.0,5.0,52,0.00,,,0.00,VWS V14.01,2013-04-27 01:29:00,
2013-04-26 18:30:00,71.6,53.1,30.02,North,349,2.0,5.0,52,0.00,,,0.00,VWS V14.01,2013-04-27 01:30:00,
2013-04-26 18:31:00,71.6,53.6,30.02,West,281,2.0,2.0,53,0.00,,,0.00,VWS V14.01,2013-04-27 01:31:00,
2013-04-26 18:33:00,71.5,53.5,30.02,NW,326,1.0,4.0,53,0.00,,,0.00,VWS V14.01,2013-04-27 01:33:00,
2013-04-26 18:36:00,71.2,53.2,30.02,WSW,239,4.0,4.0,53,0.00,,,0.00,VWS V14.01,2013-04-27 01:36:00,
2013-04-26 18:37:00,71.1,53.6,30.02,WNW,288,3.0,6.0,54,0.00,,,0.00,VWS V14.01,2013-04-27 01:37:00,
2013-04-26 18:39:00,70.9,53.4,30.02,WNW,283,4.0,6.0,54,0.00,,,0.00,VWS V14.01,2013-04-27 01:39:00,
2013-04-26 18:40:00,70.9,53.4,30.02,NW,306,1.0,2.0,54,0.00,,,0.00,VWS V14.01,2013-04-27 01:40:00,
2013-04-26 18:42:00,70.8,53.3,30.02,WSW,246,3.0,3.0,54,0.00,,,0.00,VWS V14.01,2013-04-27 01:42:00,
2013-04-26 18:44:00,70.6,53.2,30.02,WNW,284,2.0,4.0,54,0.00,,,0.00,VWS V14.01,2013-04-27 01:44:00,
2013-04-26 18:46:00,70.4,53.0,30.02,NW,304,2.0,3.0,54,0.00,,,0.00,VWS V14.01,2013-04-27 01:46:00,
2013-04-26 18:48:00,70.1,52.7,30.02,North,354,2.0,6.0,54,0.00,,,0.00,VWS V14.01,2013-04-27 01:48:00,
2013-04-26 18:49:00,70.0,53.1,30.02,NNW,332,1.0,2.0,55,0.00,,,0.00,VWS V14.01,2013-04-27 01:49:00,
2013-04-26 18:51:00,69.7,52.3,30.02,NW,308,2.0,4.0,54,0.00,,,0.00,VWS V14.01,2013-04-27 01:51:00,
2013-04-26 18:52:00,69.6,52.2,30.02,West,281,1.0,3.0,54,0.00,,,0.00,VWS V14.01,2013-04-27 01:52:00,
2013-04-26 18:54:00,69.4,52.0,30.02,NNW,335,1.0,2.0,54,0.00,,,0.00,VWS V14.01,2013-04-27 01:54:00,
2013-04-26 18:56:00,69.2,52.4,30.02,West,266,0.0,2.0,55,0.00,,,0.00,VWS V14.01,2013-04-27 01:56:00,
2013-04-26 18:57:00,69.2,52.8,30.02,WSW,258,1.0,1.0,56,0.00,,,0.00,VWS V14.01,2013-04-27 01:57:00,
2013-04-26 19:01:00,69.0,53.2,30.02,West,278,2.0,3.0,57,0.00,,,0.00,VWS V14.01,2013-04-27 02:01:00,
2013-04-26 19:02:00,68.9,53.1,30.02,West,266,1.0,3.0,57,0.00,,,0.00,VWS V14.01,2013-04-27 02:02:00,
2013-04-26 19:03:00,68.9,53.1,30.02,West,266,1.0,1.0,57,0.00,,,0.00,VWS V14.01,2013-04-27 02:03:00,
2013-04-26 19:06:00,68.7,52.9,30.02,West,269,0.0,2.0,57,0.00,,,0.00,VWS V14.01,2013-04-27 02:06:00,
2013-04-26 19:07:00,68.7,52.9,30.02,North,10,0.0,2.0,57,0.00,,,0.00,VWS V14.01,2013-04-27 02:07:00,
2013-04-26 19:09:00,68.5,53.2,30.03,West,274,1.0,2.0,58,0.00,,,0.00,VWS V14.01,2013-04-27 02:09:00,
2013-04-26 19:11:00,68.3,53.0,30.03,WSW,257,1.0,2.0,58,0.00,,,0.00,VWS V14.01,2013-04-27 02:11:00,
2013-04-26 19:12:00,68.3,53.0,30.03,West,273,1.0,3.0,58,0.00,,,0.00,VWS V14.01,2013-04-27 02:12:00,
2013-04-26 19:14:00,68.1,52.8,30.03,West,275,1.0,1.0,58,0.00,,,0.00,VWS V14.01,2013-04-27 02:14:00,
2013-04-26 19:16:00,68.0,52.7,30.03,SW,236,2.0,3.0,58,0.00,,,0.00,VWS V14.01,2013-04-27 02:16:00,
2013-04-26 19:19:00,67.7,52.9,30.03,West,274,1.0,1.0,59,0.00,,,0.00,VWS V14.01,2013-04-27 02:19:00,
2013-04-26 19:20:00,67.7,52.9,30.03,West,262,0.0,2.0,59,0.00,,,0.00,VWS V14.01,2013-04-27 02:20:00,
2013-04-26 19:22:00,67.5,52.7,30.03,West,269,1.0,2.0,59,0.00,,,0.00,VWS V14.01,2013-04-27 02:22:00,
2013-04-26 19:23:00,67.4,53.0,30.03,West,281,0.0,1.0,60,0.00,,,0.00,VWS V14.01,2013-04-27 02:23:00,
2013-04-26 19:26:00,67.2,52.9,30.03,West,269,1.0,1.0,60,0.00,,,0.00,VWS V14.01,2013-04-27 02:26:00,
2013-04-26 19:28:00,67.1,53.2,30.03,WSW,257,1.0,2.0,61,0.00,,,0.00,VWS V14.01,2013-04-27 02:28:00,
2013-04-26 19:30:00,66.9,53.0,30.03,NNW,332,0.0,1.0,61,0.00,,,0.00,VWS V14.01,2013-04-27 02:30:00,
2013-04-26 19:32:00,66.8,52.9,30.03,NW,326,0.0,1.0,61,0.00,,,0.00,VWS V14.01,2013-04-27 02:32:00,
2013-04-26 19:33:00,66.7,52.8,30.03,NW,326,0.0,0.0,61,0.00,,,0.00,VWS V14.01,2013-04-27 02:33:00,
2013-04-26 19:36:00,66.4,52.6,30.03,WNW,283,0.0,1.0,61,0.00,,,0.00,VWS V14.01,2013-04-27 02:36:00,
2013-04-26 19:38:00,66.2,52.4,30.03,West,278,0.0,0.0,61,0.00,,,0.00,VWS V14.01,2013-04-27 02:38:00,
2013-04-26 19:39:00,66.1,52.3,30.03,West,278,1.0,1.0,61,0.00,,,0.00,VWS V14.01,2013-04-27 02:39:00,
2013-04-26 19:40:00,66.0,52.6,30.03,West,281,1.0,1.0,62,0.00,,,0.00,VWS V14.01,2013-04-27 02:40:00,
2013-04-26 19:42:00,65.9,52.5,30.03,West,276,1.0,1.0,62,0.00,,,0.00,VWS V14.01,2013-04-27 02:42:00,
2013-04-26 19:43:00,65.9,52.5,30.03,West,276,1.0,2.0,62,0.00,,,0.00,VWS V14.01,2013-04-27 02:43:00,
2013-04-26 19:44:00,65.9,52.5,30.03,WNW,300,1.0,1.0,62,0.00,,,0.00,VWS V14.01,2013-04-27 02:44:00,
2013-04-26 19:46:00,65.8,52.9,30.03,WSW,256,0.0,1.0,63,0.00,,,0.00,VWS V14.01,2013-04-27 02:46:00,
2013-04-26 19:47:00,65.8,52.9,30.03,WSW,256,0.0,0.0,63,0.00,,,0.00,VWS V14.01,2013-04-27 02:47:00,
2013-04-26 19:48:00,65.7,52.8,30.03,WSW,257,0.0,0.0,63,0.00,,,0.00,VWS V14.01,2013-04-27 02:48:00,
2013-04-26 19:50:00,65.6,52.7,30.03,WSW,256,0.0,0.0,63,0.00,,,0.00,VWS V14.01,2013-04-27 02:50:00,
2013-04-26 19:51:00,65.5,52.6,30.03,West,278,1.0,1.0,63,0.00,,,0.00,VWS V14.01,2013-04-27 02:51:00,
2013-04-26 19:52:00,65.5,52.6,30.03,West,278,1.0,1.0,63,0.00,,,0.00,VWS V14.01,2013-04-27 02:52:00,
2013-04-26 19:55:00,65.3,52.8,30.03,West,262,1.0,1.0,64,0.00,,,0.00,VWS V14.01,2013-04-27 02:55:00,
2013-04-26 19:56:00,65.2,52.7,30.03,WSW,255,2.0,2.0,64,0.00,,,0.00,VWS V14.01,2013-04-27 02:56:00,
2013-04-26 19:58:00,65.2,53.2,30.03,West,276,0.0,1.0,65,0.00,,,0.00,VWS V14.01,2013-04-27 02:58:00,
2013-04-26 20:00:00,65.1,53.1,30.03,West,276,1.0,1.0,65,0.00,,,0.00,VWS V14.01,2013-04-27 03:00:00,
2013-04-26 20:02:00,65.0,53.0,30.03,West,260,2.0,3.0,65,0.00,,,0.00,VWS V14.01,2013-04-27 03:02:00,
2013-04-26 20:03:00,65.0,53.4,30.03,West,266,1.0,3.0,66,0.00,,,0.00,VWS V14.01,2013-04-27 03:03:00,
2013-04-26 20:05:00,64.8,53.2,30.03,West,267,1.0,1.0,66,0.00,,,0.00,VWS V14.01,2013-04-27 03:05:00,
2013-04-26 20:07:00,64.7,53.1,30.03,West,264,0.0,1.0,66,0.00,,,0.00,VWS V14.01,2013-04-27 03:07:00,
2013-04-26 20:08:00,64.7,53.1,30.03,West,264,0.0,0.0,66,0.00,,,0.00,VWS V14.01,2013-04-27 03:08:00,
2013-04-26 20:12:00,64.4,53.2,30.03,WSW,240,1.0,1.0,67,0.00,,,0.00,VWS V14.01,2013-04-27 03:12:00,
2013-04-26 20:13:00,64.3,53.1,30.03,WSW,240,0.0,1.0,67,0.00,,,0.00,VWS V14.01,2013-04-27 03:13:00,
2013-04-26 20:14:00,64.2,53.0,30.03,West,278,2.0,3.0,67,0.00,,,0.00,VWS V14.01,2013-04-27 03:14:00,
2013-04-26 20:15:00,64.2,53.0,30.03,WNW,288,0.0,3.0,67,0.00,,,0.00,VWS V14.01,2013-04-27 03:15:00,
2013-04-26 20:18:00,64.1,53.3,30.03,WSW,250,1.0,1.0,68,0.00,,,0.00,VWS V14.01,2013-04-27 03:18:00,
2013-04-26 20:19:00,64.0,53.2,30.03,West,263,1.0,1.0,68,0.00,,,0.00,VWS V14.01,2013-04-27 03:19:00,
2013-04-26 20:20:00,64.0,53.2,30.03,WNW,295,2.0,3.0,68,0.00,,,0.00,VWS V14.01,2013-04-27 03:20:00,
2013-04-26 20:21:00,64.0,53.2,30.03,West,264,1.0,3.0,68,0.00,,,0.00,VWS V14.01,2013-04-27 03:21:00,
2013-04-26 20:22:00,63.9,53.1,30.03,SW,224,1.0,3.0,68,0.00,,,0.00,VWS V14.01,2013-04-27 03:22:00,
2013-04-26 20:24:00,63.9,53.1,30.03,West,267,1.0,1.0,68,0.00,,,0.00,VWS V14.01,2013-04-27 03:24:00,
2013-04-26 20:26:00,63.8,53.0,30.04,WSW,248,1.0,2.0,68,0.00,,,0.00,VWS V14.01,2013-04-27 03:26:00,
2013-04-26 20:28:00,63.7,53.3,30.04,West,263,2.0,3.0,69,0.00,,,0.00,VWS V14.01,2013-04-27 03:28:00,
2013-04-26 20:30:00,63.7,53.3,30.04,WSW,243,1.0,1.0,69,0.00,,,0.00,VWS V14.01,2013-04-27 03:30:00,
2013-04-26 20:31:00,63.6,53.3,30.04,WSW,250,1.0,1.0,69,0.00,,,0.00,VWS V14.01,2013-04-27 03:31:00,
2013-04-26 20:32:00,63.7,53.3,30.04,WSW,257,1.0,2.0,69,0.00,,,0.00,VWS V14.01,2013-04-27 03:32:00,
2013-04-26 20:33:00,63.6,53.7,30.04,WSW,257,0.0,1.0,70,0.00,,,0.00,VWS V14.01,2013-04-27 03:33:00,
2013-04-26 20:34:00,63.5,53.5,30.04,WSW,240,0.0,1.0,70,0.00,,,0.00,VWS V14.01,2013-04-27 03:34:00,
2013-04-26 20:36:00,63.4,53.5,30.04,WSW,242,0.0,0.0,70,0.00,,,0.00,VWS V14.01,2013-04-27 03:36:00,
2013-04-26 20:37:00,63.3,53.4,30.04,WSW,242,0.0,0.0,70,0.00,,,0.00,VWS V14.01,2013-04-27 03:37:00,
2013-04-26 20:38:00,63.3,53.4,30.04,WSW,242,0.0,0.0,70,0.00,,,0.00,VWS V14.01,2013-04-27 03:38:00,
2013-04-26 20:39:00,63.2,53.3,30.04,WSW,242,0.0,0.0,70,0.00,,,0.00,VWS V14.01,2013-04-27 03:39:00,
2013-04-26 20:41:00,63.0,53.5,30.05,WSW,243,1.0,1.0,71,0.00,,,0.00,VWS V14.01,2013-04-27 03:41:00,
2013-04-26 20:44:00,62.9,53.4,30.04,WSW,257,2.0,2.0,71,0.00,,,0.00,VWS V14.01,2013-04-27 03:44:00,
2013-04-26 20:47:00,62.9,53.4,30.05,West,266,2.0,2.0,71,0.00,,,0.00,VWS V14.01,2013-04-27 03:47:00,
2013-04-26 20:48:00,62.8,53.7,30.05,West,269,1.0,2.0,72,0.00,,,0.00,VWS V14.01,2013-04-27 03:48:00,
2013-04-26 20:49:00,62.8,53.7,30.05,West,268,1.0,1.0,72,0.00,,,0.00,VWS V14.01,2013-04-27 03:49:00,
2013-04-26 20:52:00,62.7,53.5,30.05,West,269,2.0,2.0,72,0.00,,,0.00,VWS V14.01,2013-04-27 03:52:00,
2013-04-26 20:53:00,62.7,53.5,30.05,West,278,1.0,2.0,72,0.00,,,0.00,VWS V14.01,2013-04-27 03:53:00,
2013-04-26 20:54:00,62.6,53.5,30.05,West,271,2.0,2.0,72,0.00,,,0.00,VWS V14.01,2013-04-27 03:54:00,
2013-04-26 20:58:00,62.4,53.6,30.05,WSW,253,1.0,2.0,73,0.00,,,0.00,VWS V14.01,2013-04-27 03:58:00,
2013-04-26 20:59:00,62.4,53.6,30.05,West,263,1.0,1.0,73,0.00,,,0.00,VWS V14.01,2013-04-27 03:59:00,
2013-04-26 21:00:00,62.4,53.6,30.05,West,263,0.0,1.0,73,0.00,,,0.00,VWS V14.01,2013-04-27 04:00:00,
2013-04-26 21:01:00,62.3,53.5,30.05,West,264,2.0,2.0,73,0.00,,,0.00,VWS V14.01,2013-04-27 04:01:00,
2013-04-26 21:02:00,62.3,53.9,30.06,West,264,1.0,2.0,74,0.00,,,0.00,VWS V14.01,2013-04-27 04:02:00,
2013-04-26 21:07:00,62.2,54.2,30.06,WSW,240,1.0,2.0,75,0.00,,,0.00,VWS V14.01,2013-04-27 04:07:00,
2013-04-26 21:08:00,62.2,54.2,30.06,WSW,239,1.0,1.0,75,0.00,,,0.00,VWS V14.01,2013-04-27 04:08:00,
2013-04-26 21:09:00,62.1,54.1,30.06,WSW,253,2.0,3.0,75,0.00,,,0.00,VWS V14.01,2013-04-27 04:09:00,
2013-04-26 21:12:00,61.9,54.3,30.06,West,274,1.0,2.0,76,0.00,,,0.00,VWS V14.01,2013-04-27 04:12:00,
2013-04-26 21:14:00,61.7,54.4,30.06,West,273,0.0,1.0,77,0.00,,,0.00,VWS V14.01,2013-04-27 04:14:00,
2013-04-26 21:16:00,61.6,54.3,30.06,West,277,0.0,1.0,77,0.00,,,0.00,VWS V14.01,2013-04-27 04:16:00,
2013-04-26 21:17:00,61.4,54.1,30.06,West,276,0.0,0.0,77,0.00,,,0.00,VWS V14.01,2013-04-27 04:17:00,
2013-04-26 21:20:00,61.2,54.3,30.06,West,277,0.0,1.0,78,0.00,,,0.00,VWS V14.01,2013-04-27 04:20:00,
2013-04-26 21:21:00,61.2,54.3,30.06,West,276,0.0,0.0,78,0.00,,,0.00,VWS V14.01,2013-04-27 04:21:00,
2013-04-26 21:22:00,61.1,54.2,30.06,West,276,0.0,1.0,78,0.00,,,0.00,VWS V14.01,2013-04-27 04:22:00,
2013-04-26 21:25:00,60.9,54.0,30.06,West,274,1.0,2.0,78,0.00,,,0.00,VWS V14.01,2013-04-27 04:25:00,
2013-04-26 21:26:00,60.9,54.3,30.06,West,274,1.0,2.0,79,0.00,,,0.00,VWS V14.01,2013-04-27 04:26:00,
2013-04-26 21:28:00,60.8,54.3,30.06,West,271,1.0,1.0,79,0.00,,,0.00,VWS V14.01,2013-04-27 04:28:00,
2013-04-26 21:30:00,60.7,54.2,30.07,West,271,0.0,0.0,79,0.00,,,0.00,VWS V14.01,2013-04-27 04:30:00,
2013-04-26 21:31:00,60.6,54.1,30.07,West,271,0.0,0.0,79,0.00,,,0.00,VWS V14.01,2013-04-27 04:31:00,
2013-04-26 21:32:00,60.6,54.1,30.07,West,271,0.0,0.0,79,0.00,,,0.00,VWS V14.01,2013-04-27 04:32:00,
2013-04-26 21:33:00,60.5,54.0,30.07,West,271,0.0,0.0,79,0.00,,,0.00,VWS V14.01,2013-04-27 04:33:00,
2013-04-26 21:36:00,60.3,54.1,30.07,West,270,0.0,1.0,80,0.00,,,0.00,VWS V14.01,2013-04-27 04:36:00,
2013-04-26 21:37:00,60.2,54.0,30.07,West,264,0.0,0.0,80,0.00,,,0.00,VWS V14.01,2013-04-27 04:37:00,
2013-04-26 21:38:00,60.2,54.0,30.07,West,264,0.0,0.0,80,0.00,,,0.00,VWS V14.01,2013-04-27 04:38:00,
2013-04-26 21:39:00,60.1,53.9,30.07,West,264,0.0,0.0,80,0.00,,,0.00,VWS V14.01,2013-04-27 04:39:00,
2013-04-26 21:42:00,60.0,53.8,30.07,West,264,0.0,0.0,80,0.00,,,0.00,VWS V14.01,2013-04-27 04:42:00,
2013-04-26 21:44:00,59.8,54.0,30.07,West,264,0.0,0.0,81,0.00,,,0.00,VWS V14.01,2013-04-27 04:44:00,
2013-04-26 21:46:00,59.7,53.9,30.07,West,264,0.0,0.0,81,0.00,,,0.00,VWS V14.01,2013-04-27 04:46:00,
2013-04-26 21:48:00,59.6,53.8,30.07,West,264,0.0,0.0,81,0.00,,,0.00,VWS V14.01,2013-04-27 04:48:00,
2013-04-26 21:49:00,59.6,54.1,30.07,West,264,0.0,0.0,82,0.00,,,0.00,VWS V14.01,2013-04-27 04:49:00,
2013-04-26 21:50:00,59.5,54.0,30.07,West,264,0.0,1.0,82,0.00,,,0.00,VWS V14.01,2013-04-27 04:50:00,
2013-04-26 21:51:00,59.5,54.0,30.07,West,264,0.0,0.0,82,0.00,,,0.00,VWS V14.01,2013-04-27 04:51:00,
2013-04-26 21:54:00,59.3,53.8,30.07,West,264,0.0,0.0,82,0.00,,,0.00,VWS V14.01,2013-04-27 04:54:00,
2013-04-26 21:55:00,59.2,53.7,30.07,West,264,0.0,0.0,82,0.00,,,0.00,VWS V14.01,2013-04-27 04:55:00,
2013-04-26 21:56:00,59.1,53.6,30.07,West,264,0.0,0.0,82,0.00,,,0.00,VWS V14.01,2013-04-27 04:56:00,
2013-04-26 21:57:00,59.1,54.0,30.07,West,264,0.0,0.0,83,0.00,,,0.00,VWS V14.01,2013-04-27 04:57:00,
2013-04-26 22:00:00,59.0,53.8,30.07,West,264,0.0,0.0,83,0.00,,,0.00,VWS V14.01,2013-04-27 05:00:00,
2013-04-26 22:01:00,59.0,53.8,30.07,West,264,0.0,0.0,83,0.00,,,0.00,VWS V14.01,2013-04-27 05:01:00,
2013-04-26 22:02:00,58.9,53.8,30.07,West,264,0.0,0.0,83,0.00,,,0.00,VWS V14.01,2013-04-27 05:02:00,
2013-04-26 22:04:00,58.8,53.7,30.07,West,264,0.0,0.0,83,0.00,,,0.00,VWS V14.01,2013-04-27 05:04:00,
2013-04-26 22:06:00,58.6,53.5,30.07,West,264,0.0,0.0,83,0.00,,,0.00,VWS V14.01,2013-04-27 05:06:00,
2013-04-26 22:07:00,58.6,53.5,30.07,West,264,0.0,0.0,83,0.00,,,0.00,VWS V14.01,2013-04-27 05:07:00,
2013-04-26 22:08:00,58.5,53.4,30.07,West,264,0.0,0.0,83,0.00,,,0.00,VWS V14.01,2013-04-27 05:08:00,
2013-04-26 22:11:00,58.3,53.2,30.07,West,264,0.0,0.0,83,0.00,,,0.00,VWS V14.01,2013-04-27 05:11:00,
2013-04-26 22:12:00,58.3,53.5,30.07,West,264,0.0,0.0,84,0.00,,,0.00,VWS V14.01,2013-04-27 05:12:00,
2013-04-26 22:13:00,58.3,53.5,30.07,West,264,0.0,0.0,84,0.00,,,0.00,VWS V14.01,2013-04-27 05:13:00,
2013-04-26 22:17:00,58.1,53.3,30.07,West,264,0.0,0.0,84,0.00,,,0.00,VWS V14.01,2013-04-27 05:17:00,
2013-04-26 22:18:00,58.1,53.3,30.07,West,264,0.0,0.0,84,0.00,,,0.00,VWS V14.01,2013-04-27 05:18:00,
2013-04-26 22:21:00,57.9,53.1,30.08,West,264,0.0,0.0,84,0.00,,,0.00,VWS V14.01,2013-04-27 05:21:00,
2013-04-26 22:22:00,57.8,53.3,30.08,West,264,0.0,0.0,85,0.00,,,0.00,VWS V14.01,2013-04-27 05:22:00,
2013-04-26 22:23:00,57.8,53.3,30.08,West,264,0.0,0.0,85,0.00,,,0.00,VWS V14.01,2013-04-27 05:23:00,
2013-04-26 22:24:00,57.8,53.3,30.08,West,264,0.0,0.0,85,0.00,,,0.00,VWS V14.01,2013-04-27 05:24:00,
2013-04-26 22:26:00,57.6,53.1,30.08,West,264,0.0,0.0,85,0.00,,,0.00,VWS V14.01,2013-04-27 05:26:00,
2013-04-26 22:27:00,57.6,53.1,30.08,West,264,0.0,0.0,85,0.00,,,0.00,VWS V14.01,2013-04-27 05:27:00,
2013-04-26 22:29:00,57.6,53.1,30.08,West,264,0.0,0.0,85,0.00,,,0.00,VWS V14.01,2013-04-27 05:29:00,
2013-04-26 22:31:00,57.5,53.0,30.08,West,264,0.0,0.0,85,0.00,,,0.00,VWS V14.01,2013-04-27 05:31:00,
2013-04-26 22:32:00,57.5,53.3,30.08,West,264,0.0,0.0,86,0.00,,,0.00,VWS V14.01,2013-04-27 05:32:00,
2013-04-26 22:34:00,57.6,53.5,30.08,West,264,0.0,0.0,86,0.00,,,0.00,VWS V14.01,2013-04-27 05:34:00,
2013-04-26 22:36:00,57.6,53.5,30.08,West,264,0.0,0.0,86,0.00,,,0.00,VWS V14.01,2013-04-27 05:36:00,
2013-04-26 22:39:00,57.6,53.5,30.08,West,264,0.0,0.0,86,0.00,,,0.00,VWS V14.01,2013-04-27 05:39:00,
2013-04-26 22:40:00,57.5,53.3,30.07,West,264,0.0,0.0,86,0.00,,,0.00,VWS V14.01,2013-04-27 05:40:00,
2013-04-26 22:41:00,57.5,53.3,30.08,West,264,0.0,0.0,86,0.00,,,0.00,VWS V14.01,2013-04-27 05:41:00,
2013-04-26 22:45:00,57.4,53.2,30.08,West,264,0.0,0.0,86,0.00,,,0.00,VWS V14.01,2013-04-27 05:45:00,
2013-04-26 22:46:00,57.3,53.2,30.08,West,264,0.0,0.0,86,0.00,,,0.00,VWS V14.01,2013-04-27 05:46:00,
2013-04-26 22:47:00,57.2,53.1,30.08,West,264,0.0,0.0,86,0.00,,,0.00,VWS V14.01,2013-04-27 05:47:00,
2013-04-26 22:48:00,57.3,53.5,30.08,West,264,0.0,1.0,87,0.00,,,0.00,VWS V14.01,2013-04-27 05:48:00,
2013-04-26 22:52:00,57.5,53.7,30.08,West,264,0.0,0.0,87,0.00,,,0.00,VWS V14.01,2013-04-27 05:52:00,
2013-04-26 22:53:00,57.6,53.8,30.08,West,264,0.0,1.0,87,0.00,,,0.00,VWS V14.01,2013-04-27 05:53:00,
2013-04-26 22:55:00,57.6,53.8,30.08,West,264,0.0,0.0,87,0.00,,,0.00,VWS V14.01,2013-04-27 05:55:00,
2013-04-26 22:58:00,57.5,53.7,30.08,West,264,0.0,0.0,87,0.00,,,0.00,VWS V14.01,2013-04-27 05:58:00,
2013-04-26 23:00:00,57.4,53.6,30.08,West,264,0.0,0.0,87,0.00,,,0.00,VWS V14.01,2013-04-27 06:00:00,
2013-04-26 23:01:00,57.4,53.6,30.08,West,264,0.0,0.0,87,0.00,,,0.00,VWS V14.01,2013-04-27 06:01:00,
2013-04-26 23:02:00,57.4,53.6,30.08,West,264,0.0,0.0,87,0.00,,,0.00,VWS V14.01,2013-04-27 06:02:00,
2013-04-26 23:04:00,57.3,53.5,30.07,West,264,0.0,0.0,87,0.00,,,0.00,VWS V14.01,2013-04-27 06:04:00,
2013-04-26 23:05:00,57.3,53.5,30.07,West,264,0.0,0.0,87,0.00,,,0.00,VWS V14.01,2013-04-27 06:05:00,
2013-04-26 23:07:00,57.3,53.8,30.08,West,264,0.0,0.0,88,0.00,,,0.00,VWS V14.01,2013-04-27 06:07:00,
2013-04-26 23:08:00,57.3,53.8,30.07,West,264,0.0,0.0,88,0.00,,,0.00,VWS V14.01,2013-04-27 06:08:00,
2013-04-26 23:10:00,57.3,53.8,30.07,West,264,0.0,0.0,88,0.00,,,0.00,VWS V14.01,2013-04-27 06:10:00,
2013-04-26 23:11:00,57.4,53.9,30.08,West,264,0.0,0.0,88,0.00,,,0.00,VWS V14.01,2013-04-27 06:11:00,
2013-04-26 23:12:00,57.4,53.9,30.08,West,264,0.0,0.0,88,0.00,,,0.00,VWS V14.01,2013-04-27 06:12:00,
2013-04-26 23:13:00,57.4,53.9,30.07,West,264,0.0,0.0,88,0.00,,,0.00,VWS V14.01,2013-04-27 06:13:00,
2013-04-26 23:15:00,57.4,53.9,30.07,West,264,0.0,0.0,88,0.00,,,0.00,VWS V14.01,2013-04-27 06:15:00,
2013-04-26 23:16:00,57.4,53.9,30.08,West,264,0.0,0.0,88,0.00,,,0.00,VWS V14.01,2013-04-27 06:16:00,
2013-04-26 23:18:00,57.5,54.0,30.07,West,264,0.0,1.0,88,0.00,,,0.00,VWS V14.01,2013-04-27 06:18:00,
2013-04-26 23:19:00,57.5,54.0,30.07,West,264,0.0,0.0,88,0.00,,,0.00,VWS V14.01,2013-04-27 06:19:00,
2013-04-26 23:20:00,57.5,54.0,30.07,West,264,0.0,0.0,88,0.00,,,0.00,VWS V14.01,2013-04-27 06:20:00,
2013-04-26 23:22:00,57.5,54.0,30.07,West,264,0.0,1.0,88,0.00,,,0.00,VWS V14.01,2013-04-27 06:22:00,
2013-04-26 23:23:00,57.6,54.1,30.07,West,264,0.0,0.0,88,0.00,,,0.00,VWS V14.01,2013-04-27 06:23:00,
2013-04-26 23:24:00,57.5,54.0,30.07,West,264,0.0,0.0,88,0.00,,,0.00,VWS V14.01,2013-04-27 06:24:00,
2013-04-26 23:27:00,57.6,54.1,30.07,West,264,0.0,0.0,88,0.00,,,0.00,VWS V14.01,2013-04-27 06:27:00,
2013-04-26 23:29:00,57.5,53.7,30.08,West,264,0.0,0.0,87,0.00,,,0.00,VWS V14.01,2013-04-27 06:29:00,
2013-04-26 23:30:00,57.5,53.7,30.08,West,264,0.0,0.0,87,0.00,,,0.00,VWS V14.01,2013-04-27 06:30:00,
2013-04-26 23:32:00,57.4,53.6,30.08,West,264,0.0,0.0,87,0.00,,,0.00,VWS V14.01,2013-04-27 06:32:00,
2013-04-26 23:34:00,57.3,53.5,30.08,West,264,0.0,0.0,87,0.00,,,0.00,VWS V14.01,2013-04-27 06:34:00,
2013-04-26 23:36:00,57.3,53.5,30.08,West,264,0.0,0.0,87,0.00,,,0.00,VWS V14.01,2013-04-27 06:36:00,
2013-04-26 23:37:00,57.2,53.4,30.08,West,264,0.0,0.0,87,0.00,,,0.00,VWS V14.01,2013-04-27 06:37:00,
2013-04-26 23:39:00,57.2,53.7,30.08,West,264,0.0,0.0,88,0.00,,,0.00,VWS V14.01,2013-04-27 06:39:00,
2013-04-26 23:42:00,57.2,53.7,30.08,West,264,0.0,0.0,88,0.00,,,0.00,VWS V14.01,2013-04-27 06:42:00,
2013-04-26 23:44:00,57.2,53.7,30.08,West,264,0.0,0.0,88,0.00,,,0.00,VWS V14.01,2013-04-27 06:44:00,
2013-04-26 23:45:00,57.2,53.7,30.08,West,264,0.0,0.0,88,0.00,,,0.00,VWS V14.01,2013-04-27 06:45:00,
2013-04-26 23:47:00,57.2,53.7,30.08,West,264,0.0,0.0,88,0.00,,,0.00,VWS V14.01,2013-04-27 06:47:00,
2013-04-26 23:48:00,57.1,53.6,30.08,West,264,0.0,0.0,88,0.00,,,0.00,VWS V14.01,2013-04-27 06:48:00,
2013-04-26 23:50:00,57.1,53.6,30.08,West,264,0.0,0.0,88,0.00,,,0.00,VWS V14.01,2013-04-27 06:50:00,
2013-04-26 23:51:00,57.1,53.6,30.08,West,264,0.0,1.0,88,0.00,,,0.00,VWS V14.01,2013-04-27 06:51:00,
2013-04-26 23:52:00,57.2,53.7,30.08,West,264,0.0,0.0,88,0.00,,,0.00,VWS V14.01,2013-04-27 06:52:00,
2013-04-26 23:53:00,57.2,53.7,30.08,West,264,0.0,0.0,88,0.00,,,0.00,VWS V14.01,2013-04-27 06:53:00,
2013-04-26 23:56:00,57.2,53.7,30.08,West,264,0.0,1.0,88,0.00,,,0.00,VWS V14.01,2013-04-27 06:56:00,
2013-04-26 23:57:00,57.2,53.7,30.08,West,264,0.0,0.0,88,0.00,,,0.00,VWS V14.01,2013-04-27 06:57:00,
2013-04-26 23:59:00,57.2,53.7,30.08,West,264,0.0,1.0,88,0.00,,,0.00,VWS V14.01,2013-04-27 06:59:00,